GFSNE_prec_cloud_036.txt.gz
Cloud_Cover
96 90 10 5 5 5 5 5 5 4 4 5 5 5 5 5 5 0 0 0 2 5 5 5 30 79 94 100 100 100 100 100 100 100 100 100 100 100
100 100 43 9 5 5 5 51 5 5 0 2 5 5 5 5 5 5 5 4 4 5 5 40 90 76 95 97 100 100 100 100 100 100 100 100 100 100
100 100 73 15 56 58 39 85 26 6 4 2 0 5 5 5 10 7 7 5 5 5 5 70 96 100 100 100 97 100 100 100 100 100 100 100 100 100
100 100 30 94 100 100 100 84 79 96 54 26 5 5 76 78 7 5 5 4 5 4 5 72 76 74 83 100 100 100 100 100 100 100 100 100 100 100
100 77 95 100 100 100 100 100 100 100 96 7 20 99 84 95 10 5 5 5 5 4 4 5 5 5 70 98 100 100 98 89 75 88 96 100 100 100
100 100 100 100 98 98 100 100 100 99 100 100 29 7 8 5 16 5 8 5 5 3 1 5 5 5 7 6 20 5 5 5 27 95 99 100 100 100
100 100 100 100 100 100 100 100 99 100 100 62 72 45 92 19 5 5 23 5 5 5 5 5 5 6 5 5 5 5 5 63 98 100 100 100 100 100
100 100 100 100 100 96 100 98 20 41 64 73 70 59 6 5 5 5 44 69 84 5 5 86 5 5 5 5 5 68 97 100 100 100 100 100 100 100
100 100 86 62 99 100 66 43 5 32 74 99 100 64 5 5 7 26 62 100 100 16 5 94 5 5 5 5 5 24 71 100 100 100 100 100 100 100
100 100 100 100 100 100 25 5 5 7 8 24 5 5 10 68 99 100 99 68 5 5 5 98 7 5 5 5 5 5 12 8 28 95 100 100 100 100
100 100 100 100 97 38 5 55 96 8 5 5 5 80 99 100 78 94 15 84 83 32 5 93 12 6 49 5 5 4 5 9 53 25 95 100 100 100
100 98 29 5 5 26 94 100 80 5 5 29 5 5 3 4 5 5 27 100 99 100 5 79 65 91 91 5 4 5 5 5 5 82 99 100 100 100
41 5 3 2 67 100 99 66 6 56 96 26 4 0 2 5 5 5 7 99 100 100 10 100 100 88 100 82 40 5 5 5 5 5 5 55 91 100
5 0 4 60 98 91 27 5 76 87 10 3 5 5 5 5 5 34 56 94 98 93 84 100 99 96 100 100 100 7 5 5 5 5 5 6 57 83
5 43 94 79 64 5 4 5 37 4 5 5 65 63 62 52 10 86 81 65 62 94 98 100 100 96 100 100 100 92 95 18 6 50 6 13 17 51
13 68 67 4 4 5 2 1 5 5 29 50 52 96 93 100 100 95 100 99 100 45 90 93 61 96 100 100 100 89 71 100 97 76 100 80 89 99
97 22 2 1 5 5 5 5 5 5 49 83 100 100 100 100 99 85 100 100 100 97 66 16 86 75 92 100 100 94 99 100 44 75 85 100 95 95
24 3 5 5 5 5 5 5 5 53 92 100 100 100 100 100 100 90 100 100 100 100 100 57 62 91 100 100 100 100 88 88 90 96 100 100 100 100
3 5 5 5 5 5 34 66 98 97 99 100 100 100 100 100 100 100 100 100 100 100 86 99 100 100 100 100 100 100 100 100 100 100 93 99 100 99
5 5 5 5 5 62 69 99 100 100 100 96 100 99 100 100 100 100 100 100 100 98 97 99 100 100 100 100 100 100 100 100 100 100 100 100 100 100
5 5 5 5 46 75 97 100 100 100 100 100 100 100 100 100 89 99 100 100 100 100 100 99 98 100 99 100 100 100 100 100 100 100 100 100 100 100
5 10 40 69 87 97 99 100 100 100 100 100 100 100 98 100 100 100 100 100 100 100 100 92 93 100 100 100 100 100 100 100 100 100 100 100 100 100
34 86 100 100 100 100 100 100 100 100 100 100 100 100 100 100 100 100 100 100 100 100 100 94 100 100 100 100 100 100 100 100 100 100 100 100 100 100

GFSNE_prec_cloud_042.txt.gz
Cloud_Cover
100 100 100 100 100 100 100 100 100 100 96 100 100 100 88 18 28 7 5 5 5 5 5 5 5 5 10 5 9 98 100 89 95 97 100 100 98 100
100 100 100 100 100 100 100 100 100 100 100 100 100 100 100 93 86 5 5 5 5 5 5 5 5 8 30 81 84 85 100 99 98 100 100 100 100 100
100 100 100 100 100 100 100 100 100 100 100 100 100 100 99 74 86 39 8 5 5 5 5 5 5 22 91 100 100 100 100 100 100 100 100 100 100 100
100 100 100 100 100 100 100 100 100 100 100 100 100 100 100 96 72 48 50 34 2 5 5 5 15 63 62 88 100 100 100 100 100 100 100 100 100 100
100 100 100 100 100 100 100 100 100 100 100 100 99 100 79 90 94 96 100 100 6 18 36 5 5 5 5 94 100 99 96 98 99 100 100 100 98 94
100 100 100 100 100 100 100 100 100 100 100 100 87 92 96 96 97 49 92 88 100 98 12 5 5 5 5 5 5 5 5 5 80 99 100 100 100 100
100 100 100 100 100 100 100 100 100 100 100 100 100 100 87 39 100 100 71 100 40 5 5 5 4 5 4 5 5 5 5 22 94 100 100 100 100 100
100 100 100 100 100 100 100 100 100 100 100 100 93 91 34 54 100 84 65 92 89 5 5 5 5 5 5 5 4 5 5 45 99 100 100 100 100 100
100 100 100 100 100 100 100 100 92 99 82 84 95 96 75 25 44 58 14 84 96 51 41 29 5 5 5 0 4 5 5 12 99 98 100 100 100 100
100 100 100 100 100 100 100 95 97 100 49 99 62 51 94 86 96 98 100 71 5 5 5 92 5 5 5 1 4 5 5 5 5 37 97 100 100 100
100 100 100 100 100 88 96 95 95 86 98 100 100 97 12 10 10 5 5 89 93 52 5 79 8 5 5 5 1 1 5 6 30 58 38 94 99 100
100 98 94 97 98 76 98 100 100 100 91 9 5 4 0 0 5 5 22 99 100 96 5 85 20 80 79 5 5 5 0 0 5 5 5 36 100 100
95 88 80 88 99 94 93 51 5 40 65 5 0 0 2 5 5 5 5 94 100 100 15 100 82 94 100 83 5 5 5 5 5 5 5 7 85 96
39 57 100 100 98 84 30 5 72 64 2 0 5 5 5 5 5 5 5 24 65 97 34 99 97 89 100 96 99 5 5 5 5 5 21 10 54 47
100 100 100 63 9 3 4 5 6 4 5 5 54 45 5 5 5 52 6 5 5 15 98 97 98 99 100 100 100 89 94 87 5 5 6 24 74 95
39 5 5 1 0 1 2 0 1 5 33 45 24 64 75 60 84 7 94 86 100 15 46 92 83 96 99 98 100 93 64 100 100 57 32 99 99 98
50 1 0 2 5 5 5 5 5 5 5 36 98 100 98 95 80 36 94 100 100 92 79 90 66 80 88 100 99 67 99 84 97 100 100 100 100 100
1 4 5 5 5 5 5 7 5 26 32 93 100 100 100 100 100 96 95 100 100 100 97 5 57 94 100 100 100 100 96 96 78 92 100 100 100 100
5 55 44 5 5 47 56 83 99 69 55 100 100 100 99 84 97 91 84 100 100 96 71 76 100 100 100 100 100 100 100 100 100 100 98 100 100 100
33 58 44 43 53 86 94 100 95 89 96 97 100 100 98 100 98 92 98 100 99 78 97 75 76 98 100 100 100 100 100 100 100 100 100 100 100 100
5 25 6 65 84 95 97 96 95 100 100 98 98 98 98 100 91 96 100 98 100 100 100 97 56 80 97 99 100 100 100 100 100 100 98 100 100 100
5 41 39 83 96 96 91 96 100 98 98 100 98 100 99 100 100 100 100 100 100 100 93 100 99 93 100 100 98 100 100 100 100 100 100 100 100 100
6 56 72 89 94 91 92 97 100 100 98 100 98 96 100 99 100 100 100 100 98 99 100 100 100 88 100 100 100 100 100 100 100 100 100 100 100 100

GFSNE_prec_cloud_045.txt.gz
Cloud_Cover
100 100 100 100 100 100 100 100 100 100 100 100 100 100 100 57 100 100 100 87 14 95 42 49 8 5 5 5 5 2 5 2 10 30 91 98 100 100
100 100 100 100 100 100 100 100 100 100 100 100 100 100 100 100 100 88 96 98 46 36 100 39 7 5 5 5 9 24 67 97 100 100 100 100 100 100
100 100 100 100 100 100 100 100 100 100 100 100 100 100 100 100 100 100 96 89 100 99 96 100 65 11 36 57 48 71 74 100 100 100 100 100 100 100
100 100 100 100 100 100 100 100 100 100 100 100 100 100 100 100 100 100 99 81 100 75 94 92 5 30 5 5 82 100 100 100 100 100 100 100 100 100
100 100 100 100 100 100 100 100 100 100 100 100 100 100 100 100 100 100 100 100 100 100 100 13 5 5 86 7 89 94 85 96 97 99 100 100 100 100
100 100 100 100 100 100 100 100 100 100 100 100 100 100 100 100 100 98 100 100 84 37 54 83 56 6 5 5 5 5 5 5 55 95 100 100 100 100
100 100 100 100 100 100 100 100 100 100 100 100 100 99 99 96 91 92 100 76 94 74 100 100 13 5 5 5 5 5 5 5 5 89 100 100 100 100
100 100 100 100 100 100 100 100 100 100 100 100 100 84 100 69 100 100 92 100 100 92 6 54 71 5 5 5 4 5 5 5 71 94 100 100 100 100
100 100 100 100 100 100 100 100 100 100 100 100 100 100 100 100 99 47 82 99 100 69 37 56 5 5 5 2 4 5 5 5 35 95 100 100 100 100
100 100 100 100 100 100 100 100 100 100 90 90 100 100 72 56 76 89 86 85 91 14 58 95 5 5 5 5 5 5 5 5 7 77 99 100 100 100
100 100 100 100 100 100 100 100 100 100 95 17 5 5 13 15 20 70 82 86 86 8 9 91 8 78 35 5 5 1 5 5 13 6 12 87 98 100
100 100 100 100 100 100 100 100 84 71 99 61 5 2 0 0 5 5 68 99 100 88 18 61 86 96 90 5 4 5 5 5 5 5 11 81 98 100
100 100 100 100 100 100 100 83 35 26 5 5 0 0 5 5 5 6 76 99 100 100 38 100 87 94 100 94 49 21 5 5 5 5 5 37 91 96
100 100 100 100 88 47 14 5 56 38 2 0 5 5 5 5 16 6 29 62 83 86 8 100 95 96 100 98 96 16 5 5 16 8 26 55 26 10
100 100 97 15 5 5 5 5 5 1 5 30 69 87 83 74 78 85 85 75 85 90 70 100 86 92 100 100 99 90 96 16 12 46 20 74 62 85
58 48 13 5 4 3 2 1 5 5 78 90 95 98 92 99 98 91 99 92 90 41 5 5 5 86 100 100 100 100 91 99 28 45 100 67 91 97
8 5 4 0 2 4 5 5 5 13 81 97 96 98 96 98 88 76 96 98 100 92 54 5 17 96 98 99 100 93 93 72 47 90 100 100 65 76
3 1 5 5 5 5 6 7 5 59 84 94 100 100 98 100 100 90 88 96 99 97 98 82 89 96 51 96 99 100 91 88 86 85 100 100 100 100
3 5 5 36 68 72 85 100 100 95 74 100 100 100 100 100 100 98 98 99 100 99 96 100 100 100 100 100 100 100 100 100 100 100 100 100 100 100
5 12 65 75 86 99 100 100 100 100 100 100 100 100 100 100 99 100 100 100 100 100 100 89 97 99 100 100 100 73 100 100 100 100 100 100 100 100
5 5 53 83 100 100 100 100 100 100 96 99 99 100 100 100 95 100 100 100 100 100 100 99 54 94 100 100 100 86 99 100 100 100 100 100 100 100
5 5 12 78 97 100 100 100 100 100 100 100 97 100 100 100 100 100 99 100 93 98 100 80 68 97 100 100 99 100 100 100 100 100 100 100 100 100
5 5 28 67 76 86 100 100 100 100 99 100 100 100 100 100 100 98 89 99 100 100 88 100 100 100 100 97 100 100 100 100 100 100 100 100 100 100

GFSNE_prec_cloud_048.txt.gz
Cloud_Cover
100 100 100 100 100 100 100 100 100 100 100 100 100 100 100 100 100 100 100 100 100 100 100 100 100 66 7 28 90 85 31 22 17 5 5 6 32 95
100 100 100 100 100 100 100 100 100 100 100 100 100 100 100 100 100 100 100 100 100 100 100 100 99 54 5 5 5 28 6 5 5 12 28 88 100 100
100 100 100 100 100 100 100 100 100 100 100 100 100 100 100 100 100 100 100 100 100 98 100 100 100 95 62 36 55 5 49 16 92 83 83 99 100 100
100 100 100 100 100 100 100 100 100 100 100 100 100 100 100 100 100 98 100 100 100 100 100 91 100 100 100 100 38 61 40 96 81 100 100 100 100 100
100 100 100 100 100 100 100 100 100 100 100 100 100 96 98 100 99 100 100 100 100 100 100 68 17 12 76 49 5 6 42 68 43 48 38 95 98 100
100 100 100 100 100 100 100 100 100 100 100 100 100 97 98 100 100 100 100 100 100 100 100 82 76 97 64 43 29 8 5 5 5 34 99 99 100 100
100 100 100 100 100 100 100 100 100 100 100 100 100 94 100 100 100 100 100 100 100 100 100 100 81 91 100 87 30 5 5 5 5 6 88 95 100 100
100 100 100 100 100 100 100 100 100 100 100 100 98 100 100 100 100 100 100 88 100 86 82 100 27 14 5 5 4 5 5 5 6 81 90 99 99 100
100 100 100 100 100 100 100 100 100 100 100 100 100 100 100 100 100 100 95 87 95 54 92 77 5 5 5 5 5 5 5 9 63 76 99 99 100 100
100 100 100 100 100 100 99 100 98 100 96 100 100 100 100 87 84 88 99 100 90 41 95 70 12 35 5 5 5 5 5 5 5 5 89 98 100 100
100 100 100 100 100 100 100 100 100 100 100 100 100 100 100 100 94 50 65 100 80 55 61 69 12 92 7 5 4 5 5 7 5 5 30 83 97 100
100 100 100 100 100 100 100 100 100 100 100 100 100 96 64 5 5 5 61 100 100 81 25 11 44 95 92 5 15 5 5 5 70 22 73 98 96 100
100 100 100 100 100 100 100 100 100 90 60 6 3 2 5 5 15 42 78 94 100 100 16 100 82 85 100 94 48 44 5 5 42 5 42 95 96 100
100 100 100 100 79 49 32 6 22 53 3 3 5 5 44 83 90 84 72 82 90 89 45 100 99 94 100 100 94 8 5 5 42 51 59 63 86 95
50 39 10 6 5 2 0 5 5 3 5 5 74 90 94 90 85 83 92 99 100 97 74 77 96 100 100 100 100 93 99 20 14 81 75 62 80 93
23 5 5 5 0 0 0 3 5 5 7 76 83 85 90 90 86 97 100 96 100 76 6 11 50 99 100 100 100 100 90 99 36 5 100 91 100 100
7 3 0 0 0 2 5 5 5 5 63 95 93 96 95 98 90 94 100 100 100 100 93 67 89 100 100 100 100 100 100 88 100 100 100 100 98 95
0 0 0 0 5 5 5 30 72 93 95 96 100 100 98 100 100 100 100 100 100 100 100 100 100 100 87 62 100 100 100 100 90 88 100 100 100 100
0 0 5 5 85 94 98 95 99 100 96 100 100 100 100 100 100 100 100 100 100 100 100 100 100 100 100 100 89 100 100 84 100 100 100 100 100 100
5 5 18 89 99 99 95 98 100 100 100 100 100 100 100 100 100 100 95 100 93 100 100 100 100 97 100 100 100 43 11 45 53 100 100 100 100 100
5 5 24 91 100 99 100 100 100 100 100 100 100 100 100 100 100 100 100 94 96 97 100 100 53 84 100 100 100 100 37 100 100 100 99 100 100 100
5 5 5 80 100 95 99 99 100 100 100 100 100 100 100 100 100 100 100 100 100 100 100 100 100 100 100 100 100 84 100 100 99 100 100 100 100 100
5 5 5 66 96 100 100 100 95 100 100 94 98 100 100 100 100 100 100 100 100 100 100 100 98 100 100 100 100 100 100 100 100 100 100 100 100 100

GFSNE_prec_cloud_054.txt.gz
Cloud_Cover
100 100 100 100 100 100 100 100 100 100 100 100 100 100 100 100 100 100 100 100 100 100 100 100 100 100 100 100 71 18 92 16 86 88 73 90 5 6
100 100 100 100 100 100 100 100 100 100 100 100 100 100 100 100 100 100 100 100 100 100 100 100 100 100 99 100 60 52 100 5 31 5 39 22 100 100
100 100 100 100 100 100 100 100 100 100 100 100 100 100 100 100 100 100 100 100 100 100 100 100 100 100 100 90 100 76 12 82 34 21 35 13 12 89
100 100 100 100 100 100 100 100 100 100 100 100 100 100 100 100 100 100 100 100 100 100 100 100 100 100 100 100 100 100 100 100 82 19 10 66 84 100
100 100 100 100 100 100 100 100 100 100 100 100 100 100 100 100 100 100 100 99 100 100 100 100 100 100 100 100 98 20 10 14 54 37 100 82 72 97
100 100 100 100 100 100 100 100 100 100 100 100 100 100 100 97 85 100 100 86 100 100 100 100 98 100 88 51 66 26 55 88 26 95 91 87 71 88
100 100 100 100 100 100 100 100 100 100 100 100 99 100 100 100 100 98 95 100 100 76 41 88 54 72 100 94 62 78 10 12 74 88 99 100 100 100
100 100 100 100 100 100 100 100 100 100 100 100 100 99 100 100 100 100 100 92 100 93 89 100 97 100 100 100 100 95 33 5 30 78 93 100 100 100
100 100 100 100 100 100 100 100 100 100 100 100 100 100 100 100 100 100 100 100 100 100 100 100 100 100 100 91 5 5 5 5 8 36 5 29 86 100
100 100 100 100 100 100 100 100 100 100 100 100 100 100 100 100 100 100 100 100 94 51 82 85 15 9 6 5 5 4 5 5 5 5 20 57 99 100
96 100 100 100 100 100 100 100 70 65 91 89 99 69 53 51 41 25 24 21 28 13 6 6 5 5 3 1 2 0 5 5 5 5 89 98 100 100
0 1 4 4 5 21 5 5 12 5 5 3 3 4 3 0 4 5 5 5 59 42 5 5 16 21 32 9 6 5 2 3 5 5 8 98 100 100
3 5 5 5 25 59 58 5 5 10 4 2 5 1 0 0 5 5 5 5 50 92 33 85 91 90 100 95 6 5 5 5 5 5 5 8 68 100
5 5 5 5 5 5 5 5 5 5 4 5 2 3 4 5 7 53 93 93 92 87 87 100 100 100 100 100 100 9 30 72 5 5 5 5 8 5
5 5 5 5 5 5 5 5 5 1 0 4 5 14 75 100 100 100 100 100 100 100 100 100 100 100 100 100 100 98 100 73 72 5 5 39 19 5
5 5 5 5 5 5 5 1 0 1 4 5 5 5 8 37 100 100 100 100 100 100 100 100 100 100 100 100 100 97 93 98 43 15 5 71 30 5
5 5 5 5 5 5 4 5 5 5 5 5 21 90 100 100 100 100 100 100 100 100 100 96 100 100 100 100 99 84 80 83 90 42 39 78 63 16
5 5 5 5 5 5 5 5 5 22 98 99 100 100 100 100 100 100 100 100 100 100 100 100 97 100 96 38 35 85 77 62 8 10 86 100 93 44
5 5 5 5 5 5 5 23 100 100 100 100 100 100 100 100 100 100 100 100 100 100 100 100 100 100 100 100 13 10 91 30 12 88 98 20 99 43
5 5 5 5 5 5 16 100 100 100 100 100 100 100 100 100 100 100 100 100 100 100 98 97 100 100 100 100 100 80 26 13 90 100 48 10 96 100
5 5 5 5 5 7 12 95 100 100 100 100 100 100 100 100 98 98 97 98 100 94 91 84 63 98 100 100 100 92 5 83 92 55 41 90 100 100
31 5 5 5 5 18 5 5 92 100 100 100 100 100 100 100 100 98 99 100 99 100 97 78 92 100 100 100 100 100 91 63 7 12 7 23 100 100
5 5 5 5 5 5 5 44 38 70 68 78 72 62 100 99 99 100 100 100 100 100 100 100 100 100 99 100 99 99 98 85 37 88 68 21 100 100

GFSNE_prec_cloud_057.txt.gz
Cloud_Cover
100 100 94 100 100 100 100 100 100 100 100 100 100 100 100 100 100 100 100 100 100 100 100 100 100 100 100 100 100 100 100 100 100 100 100 41 6 5
100 100 100 100 100 99 100 100 100 100 100 100 100 100 100 100 100 100 100 100 100 100 100 100 100 100 100 100 100 100 100 96 100 98 100 93 99 59
100 100 100 100 100 100 100 100 100 100 100 100 100 100 100 100 100 100 100 100 100 100 100 100 100 100 100 100 100 100 100 100 100 100 100 100 100 100
100 100 100 100 100 100 100 100 100 100 100 100 100 100 100 100 100 100 100 100 100 100 100 100 100 100 100 100 100 100 100 100 96 34 98 100 100 100
100 100 100 100 100 100 100 100 100 100 100 100 100 100 100 100 100 100 100 100 100 100 100 100 100 100 100 100 99 67 5 97 99 100 93 100 85 56
100 100 100 100 100 100 100 100 100 100 100 100 100 100 100 100 100 100 100 100 100 100 100 100 100 100 100 76 98 97 93 77 100 46 11 38 18 70
100 100 100 100 100 100 100 100 100 100 100 100 100 100 100 100 100 100 98 85 96 56 84 96 99 100 87 89 49 7 6 10 16 22 82 84 98 100
100 100 100 100 100 100 100 100 100 100 100 100 100 100 100 100 100 100 100 100 87 100 100 91 17 65 71 70 57 31 43 65 84 35 7 28 99 100
98 99 68 92 96 100 100 100 100 100 100 100 100 100 97 96 100 100 100 100 97 65 85 30 19 6 5 5 5 5 5 5 5 5 5 76 100 100
30 7 5 15 5 11 30 98 100 100 100 100 100 100 100 100 69 29 14 17 7 8 5 63 5 5 4 5 0 5 5 5 5 6 12 40 51 94
0 0 0 1 5 6 5 5 5 5 7 24 5 5 5 5 7 5 5 5 12 5 5 5 5 6 5 5 4 2 5 5 5 5 6 22 78 100
0 0 2 5 6 40 7 5 5 5 5 5 5 5 5 5 5 5 5 5 70 14 5 44 27 18 9 8 5 5 5 4 5 5 8 38 93 97
5 0 3 5 5 5 22 5 5 7 5 5 5 5 5 5 4 5 5 16 71 86 18 80 90 97 99 62 13 6 5 5 5 5 5 5 12 87
4 5 5 5 8 5 5 5 5 22 5 3 4 4 4 18 8 55 72 100 100 100 100 100 100 100 100 100 98 8 5 5 5 5 5 5 5 6
37 5 5 5 5 5 5 5 5 5 1 4 5 5 5 26 72 79 94 100 100 100 100 100 100 100 100 100 99 65 74 5 5 5 9 7 5 5
22 5 4 4 5 5 5 5 5 4 5 5 5 7 25 48 100 100 100 100 98 93 95 100 100 100 100 100 100 90 38 93 7 5 5 10 6 6
5 5 5 5 5 5 0 2 5 5 14 73 84 96 100 100 100 100 100 100 98 97 86 86 100 100 100 95 100 61 86 90 79 6 48 94 67 37
42 22 5 5 5 5 5 5 5 11 78 100 100 100 100 100 100 100 100 99 97 92 95 94 95 100 96 69 96 100 100 100 38 20 16 95 100 10
5 5 5 5 5 5 12 56 69 100 100 100 100 100 100 100 100 100 90 97 100 80 29 5 17 100 100 100 5 6 58 7 42 87 98 73 80 10
5 5 5 5 5 5 31 44 27 100 100 100 100 100 100 100 97 94 83 96 99 91 91 67 89 97 100 99 100 76 5 86 82 94 87 20 20 44
5 5 5 5 5 5 5 22 6 31 97 100 100 100 100 100 100 99 100 99 100 96 99 77 57 83 100 100 100 22 5 5 32 74 89 97 100 100
5 5 5 5 5 26 5 29 53 45 50 94 77 48 55 97 100 100 100 100 100 100 100 92 50 75 96 100 100 99 84 20 5 5 7 70 91 100
38 54 5 5 5 5 31 54 54 17 25 72 77 96 93 98 93 100 100 100 100 100 100 100 100 100 100 100 100 100 100 75 77 89 88 60 42 5

GFSNE_prec_cloud_063.txt.gz
Cloud_Cover
100 100 100 99 100 100 100 100 100 100 100 0 68 22 50 100 59 100 100 100 100 100 100 100 100 100 100 100 100 100 100 100 100 100 100 100 100 100
99 100 100 100 84 100 100 100 100 100 100 100 57 57 100 95 100 100 100 100 100 100 100 100 100 100 100 100 100 100 100 100 100 100 100 100 100 100
100 100 100 100 100 100 100 100 100 100 100 100 100 100 100 100 100 100 100 100 100 100 100 100 100 100 100 100 100 100 100 100 100 100 100 100 100 100
69 87 100 100 100 100 100 100 100 100 100 100 87 100 100 100 100 100 100 100 100 100 100 100 100 100 100 100 100 100 100 100 100 100 100 100 100 100
100 100 97 84 100 100 100 100 100 100 100 100 99 100 100 100 100 100 100 100 100 100 100 100 100 100 100 100 100 100 100 100 100 100 100 100 100 100
100 100 100 95 95 71 53 44 19 82 83 98 80 95 94 100 100 100 100 100 100 100 100 100 100 100 100 100 100 100 95 100 100 100 100 100 100 100
100 100 100 100 99 84 71 89 86 96 100 100 72 51 88 76 90 100 100 100 100 100 100 100 100 100 100 100 100 100 100 100 100 100 66 70 95 100
47 70 82 97 100 99 81 91 74 18 74 85 20 19 9 5 5 5 8 99 100 100 100 100 100 90 100 100 100 99 100 100 100 100 99 92 92 100
5 5 5 4 5 5 5 5 5 5 5 5 5 5 5 5 5 5 5 5 5 8 44 35 88 97 74 81 96 50 6 52 70 7 28 61 98 100
5 5 5 23 28 58 17 6 5 5 8 5 5 5 4 2 5 5 5 5 7 5 5 60 5 5 5 5 5 5 5 5 6 20 42 58 45 28
52 60 72 15 77 60 11 7 14 5 11 15 5 5 5 29 22 46 34 44 36 5 5 16 5 12 5 5 5 7 51 14 5 5 5 5 8 13
100 100 88 90 100 100 34 65 20 8 5 5 2 2 0 0 0 5 5 63 70 6 5 43 53 18 52 5 6 5 5 0 5 5 5 5 27 99
100 100 100 100 100 100 100 78 14 5 5 5 5 5 5 5 5 5 5 5 60 52 16 73 93 99 91 60 5 7 5 5 5 4 5 5 5 40
100 100 100 100 81 85 41 5 5 9 5 5 5 21 34 5 32 33 55 93 100 93 90 99 99 94 100 100 98 9 5 5 5 5 5 5 5 5
100 100 100 100 37 5 5 5 5 5 5 7 27 44 44 40 48 18 51 97 100 100 100 100 100 100 100 97 92 84 95 20 22 7 5 5 5 7
5 6 5 5 5 5 5 5 5 5 5 45 50 32 68 83 100 100 100 100 97 56 5 42 76 97 100 99 98 81 98 93 62 50 57 30 14 6
5 5 5 5 5 5 39 63 13 30 72 54 82 96 100 100 100 100 100 100 99 88 35 28 5 10 54 82 100 87 85 88 96 100 100 100 100 80
5 7 25 9 26 5 66 16 36 41 8 75 98 100 100 100 100 100 100 100 100 92 86 63 70 73 46 5 33 94 97 99 83 88 95 100 99 35
27 31 59 56 36 48 55 59 70 38 56 59 57 96 100 100 100 100 100 100 95 90 74 60 100 100 100 99 5 9 55 35 5 5 22 89 79 7
16 17 6 7 32 28 51 65 51 40 67 63 64 76 62 86 76 92 38 83 98 92 77 34 92 99 100 88 100 100 100 36 5 10 19 32 31 90
5 7 19 20 5 22 52 23 63 50 52 83 80 86 75 66 85 88 99 75 90 74 85 30 99 100 100 98 100 87 100 100 72 54 95 99 99 85
5 5 10 8 22 37 17 39 59 43 23 37 41 58 44 73 99 95 99 100 99 99 96 76 78 95 100 100 77 56 97 100 100 56 100 89 97 99
5 12 57 39 16 46 58 72 36 55 10 10 55 5 31 95 85 100 100 100 100 100 100 100 100 98 100 100 100 100 97 68 17 60 5 60 6 45

GFSNE_prec_cloud_066.txt.gz
Cloud_Cover
100 100 100 100 100 100 97 98 100 100 100 100 87 34 24 51 26 96 55 100 93 100 100 100 100 100 100 100 100 100 100 100 100 100 100 100 100 100
100 100 100 100 100 88 68 90 88 100 100 100 99 91 100 94 100 100 100 100 100 100 100 100 100 100 100 100 100 100 100 100 100 100 100 100 100 100
100 100 100 100 100 100 100 100 100 100 100 100 93 86 100 87 100 100 100 100 100 100 100 100 100 100 100 100 100 100 100 100 100 100 100 100 100 100
53 35 67 98 100 100 100 100 100 100 100 100 100 51 80 96 98 98 99 84 100 100 100 100 100 100 100 100 100 100 100 100 100 100 100 100 100 100
91 100 100 98 74 100 100 97 97 40 85 100 100 98 92 85 66 100 97 100 100 100 100 100 100 100 100 100 100 100 100 100 100 93 81 100 100 100
100 100 100 100 60 81 62 25 7 9 60 92 100 100 99 100 100 100 100 100 100 100 100 100 100 100 100 100 100 100 100 100 100 100 100 100 100 100
100 100 100 100 100 100 55 10 5 5 21 11 8 39 98 62 72 71 91 99 100 100 100 93 100 100 98 99 100 100 95 95 100 100 100 100 69 100
22 59 78 92 40 15 5 5 7 67 49 19 32 6 5 5 5 5 12 5 5 5 5 5 30 61 100 100 100 100 100 100 100 100 81 56 100 100
5 5 5 28 7 68 52 40 71 70 68 83 59 13 6 5 5 5 5 5 5 5 5 5 5 5 5 28 75 94 99 100 100 100 100 99 100 100
79 98 100 46 48 96 100 80 55 94 100 78 70 54 6 5 5 5 5 5 5 5 5 72 5 5 5 5 5 5 5 5 5 8 89 100 97 82
100 99 93 74 100 100 100 100 100 100 100 96 72 5 7 7 10 5 5 38 16 5 5 21 8 12 5 5 5 6 53 75 68 49 46 25 25 38
5 12 45 47 100 100 100 100 100 91 66 69 17 13 5 5 5 5 23 58 78 6 5 49 54 20 50 5 5 5 5 5 5 5 5 9 5 5
5 6 36 94 100 100 99 95 94 64 5 5 5 5 5 5 5 5 5 5 66 37 23 95 99 99 91 57 5 5 5 5 5 4 0 5 5 6
5 5 5 5 17 46 36 31 11 5 5 5 5 27 36 5 26 37 16 38 76 89 96 100 98 92 100 98 87 5 5 5 5 5 5 5 5 5
5 5 5 5 5 5 5 5 5 5 13 82 47 39 36 56 57 31 69 91 100 100 100 100 100 96 99 100 96 75 96 21 16 7 6 5 5 5
5 5 5 5 5 5 5 6 33 7 36 54 54 58 69 73 100 100 100 100 87 61 5 52 68 96 92 94 98 92 93 90 64 67 58 75 96 91
5 5 5 5 5 5 6 52 85 5 26 65 72 73 96 100 100 100 100 100 97 90 53 19 48 65 27 19 93 89 40 72 5 5 84 92 52 99
5 5 6 5 5 5 5 5 5 11 14 60 56 28 63 89 100 100 100 99 98 94 51 70 69 56 51 5 8 48 40 93 74 32 8 98 92 66
6 52 30 26 5 5 5 56 47 5 53 76 87 76 78 74 90 76 83 100 99 47 17 66 100 100 100 99 5 5 63 92 72 94 100 92 88 97
38 46 14 5 5 6 6 48 6 20 59 57 71 76 76 87 100 100 97 70 77 78 92 68 95 99 99 96 92 23 73 10 47 52 92 19 15 66
25 29 31 12 59 22 11 15 55 45 70 86 76 90 68 98 93 74 78 63 84 83 93 16 62 99 100 100 100 11 5 80 76 42 66 94 100 85
71 83 14 67 67 62 10 22 62 59 57 46 20 55 52 65 82 69 71 93 86 85 75 11 20 67 96 100 69 30 5 5 53 52 89 90 97 91
45 100 100 91 38 6 39 58 57 5 5 9 52 50 64 94 89 95 96 95 91 98 95 96 79 93 100 100 97 100 100 63 55 17 5 5 18 26

GFSNE_prec_cloud_069.txt.gz
Cloud_Cover
100 100 100 100 90 92 100 100 100 92 97 100 79 90 44 92 99 96 100 71 85 100 98 100 100 100 100 100 100 100 100 100 100 100 100 100 100 100
100 100 100 100 100 100 100 100 100 100 100 99 91 100 77 85 100 100 100 100 98 100 55 100 100 100 100 100 100 100 100 100 100 100 100 100 100 100
100 100 100 100 100 100 100 100 100 100 100 100 100 100 90 67 80 99 100 100 100 100 100 100 100 100 100 100 100 100 100 100 100 100 100 100 100 100
100 100 100 100 100 100 100 100 100 100 100 100 100 100 95 57 62 54 57 100 100 100 100 100 100 100 100 100 100 100 100 100 100 100 100 100 100 100
100 100 100 100 100 97 92 100 84 39 29 54 74 86 82 72 63 55 56 87 94 100 100 100 100 100 99 96 100 100 100 100 100 100 100 100 100 100
100 100 100 100 75 38 46 21 6 2 10 40 69 97 80 100 100 100 55 25 49 67 99 100 100 100 100 100 100 100 100 100 100 100 100 100 52 66
100 100 100 95 88 81 21 5 5 5 5 10 22 47 48 35 12 6 6 6 11 13 24 29 36 47 54 47 40 76 100 100 100 100 100 100 100 100
100 100 96 6 5 5 5 5 5 5 7 7 66 83 97 57 97 29 39 5 2 0 0 0 4 5 5 5 5 5 5 5 5 5 30 43 82 100
53 45 5 36 5 5 66 42 5 64 90 66 99 66 98 100 98 52 31 5 4 4 5 2 5 5 5 5 5 5 5 5 5 5 6 55 100 100
100 96 5 5 7 4 5 5 6 92 100 100 93 100 100 100 38 18 5 5 5 5 5 5 5 5 5 5 5 5 5 5 5 8 64 100 100 100
68 8 5 5 7 5 16 26 39 80 95 100 83 19 14 10 5 5 5 5 5 5 5 7 5 5 5 5 5 21 56 58 71 85 100 100 100 100
6 2 5 5 5 5 4 5 5 5 34 96 21 6 5 5 5 5 5 5 5 11 5 60 50 62 48 5 5 5 5 5 5 39 20 6 45 18
5 5 3 5 5 7 6 5 5 5 5 5 5 5 5 5 5 5 5 5 21 35 21 93 96 92 93 87 43 5 5 5 4 4 3 5 5 5
5 5 4 3 3 2 1 5 5 5 5 5 5 5 6 5 5 5 5 5 58 83 88 100 100 99 100 100 91 19 34 5 5 5 6 5 5 15
5 5 5 0 0 5 5 5 5 5 5 5 5 5 5 5 5 5 74 88 87 87 100 100 94 97 99 100 96 92 98 65 71 47 28 5 5 5
8 5 5 4 2 5 5 16 5 5 5 5 5 5 5 7 96 100 98 100 92 87 5 5 67 56 92 90 96 100 87 94 6 18 71 71 59 68
49 14 5 5 5 9 74 88 13 5 5 5 5 28 50 76 93 96 98 98 99 95 90 82 5 9 40 50 94 75 6 12 61 76 75 84 74 75
94 5 5 5 5 18 62 39 5 5 5 5 5 54 66 54 75 82 91 96 98 99 100 84 71 52 51 5 5 5 8 18 12 89 85 100 96 97
60 5 34 16 19 41 23 36 12 5 5 5 5 5 24 83 88 98 96 100 95 68 81 96 100 100 100 98 5 21 45 37 87 94 76 87 92 95
46 70 73 84 63 31 43 9 5 5 5 5 5 5 5 40 78 89 73 88 73 41 48 96 96 98 99 85 99 53 15 5 5 5 48 27 65 66
72 80 99 100 90 100 95 46 5 5 6 10 6 26 42 78 39 25 39 41 87 96 100 88 43 88 91 98 100 33 5 5 5 22 86 96 100 84
86 100 87 81 100 100 96 22 5 5 5 6 10 5 5 60 71 67 82 99 98 100 93 45 58 91 99 100 100 84 48 21 5 15 84 94 97 97
100 100 82 100 91 67 98 22 9 16 16 5 52 36 58 98 97 100 100 100 100 100 100 97 96 98 100 100 98 99 100 88 66 97 51 100 69 76

GFSNE_prec_cloud_072.txt.gz
Cloud_Cover
100 100 100 100 100 100 88 100 100 100 100 100 100 100 100 89 100 76 100 100 100 100 22 100 98 100 100 85 78 100 100 100 100 100 100 100 100 100
100 100 100 100 91 99 99 100 100 100 100 100 100 100 100 97 88 83 70 100 100 100 100 100 93 64 100 100 100 100 100 100 100 100 100 100 100 100
100 100 100 76 73 100 100 100 100 100 100 100 100 100 100 77 72 82 54 96 88 100 100 100 100 100 99 100 100 100 100 100 100 100 100 100 100 100
100 98 100 100 100 100 100 100 100 100 100 100 100 98 100 84 90 100 76 34 51 100 98 100 100 100 98 86 100 100 100 100 100 100 100 100 100 100
100 99 100 100 100 100 100 100 100 99 62 88 100 100 98 94 93 100 73 69 51 51 93 98 100 100 100 100 62 81 100 100 100 100 100 100 100 100
100 100 100 100 93 99 100 86 100 42 26 59 100 100 95 80 93 41 74 5 33 14 6 45 94 100 36 100 98 40 99 64 100 100 87 97 92 95
100 100 100 100 95 100 100 66 10 4 5 14 37 32 17 22 9 35 32 46 100 38 5 3 5 5 13 50 88 68 19 87 100 100 100 52 32 46
99 78 100 100 100 98 5 5 5 5 35 5 5 5 48 5 67 91 99 100 71 6 5 5 2 0 0 0 3 5 5 5 5 6 11 5 5 5
98 100 100 100 96 13 2 0 3 5 4 5 10 69 99 99 100 100 89 43 15 27 5 5 5 5 5 1 2 5 5 5 38 75 33 6 5 5
100 100 100 66 74 5 5 0 0 4 5 5 5 5 5 8 6 40 9 9 5 5 5 5 5 5 5 5 5 5 5 5 6 8 36 48 98 100
100 100 100 42 5 5 5 1 0 0 0 5 3 1 4 5 5 5 38 5 5 5 5 6 25 5 5 5 5 6 10 7 5 8 89 95 100 100
100 100 5 12 25 5 5 5 0 0 2 5 5 5 5 5 5 5 5 6 13 73 60 53 74 61 46 5 5 5 5 5 5 5 14 99 100 99
100 99 45 50 5 5 5 5 5 4 4 4 5 5 5 5 5 7 6 64 99 94 96 97 100 100 100 93 30 15 11 5 5 5 5 5 5 15
100 76 100 43 10 5 5 5 5 5 5 5 5 5 5 21 79 61 50 57 88 84 94 99 99 98 100 100 97 76 84 80 54 43 51 35 10 5
100 100 100 100 6 5 5 5 5 5 5 5 5 26 56 70 21 62 98 100 90 99 88 94 81 100 100 100 98 95 100 78 61 100 100 69 65 49
100 100 100 78 13 5 16 50 13 5 5 5 5 24 66 73 91 96 100 100 100 100 94 7 39 81 90 97 100 100 98 98 79 82 84 89 85 82
100 100 98 56 20 65 55 41 5 5 5 5 5 5 64 78 87 91 100 98 99 100 100 100 97 82 82 85 83 67 35 48 22 75 100 98 60 47
100 100 100 100 100 82 54 9 41 7 5 22 37 8 49 74 80 84 98 96 99 94 98 98 100 95 14 5 12 46 35 61 74 86 100 100 99 58
100 100 100 100 50 78 26 7 5 42 74 57 48 5 5 51 72 69 74 76 69 72 85 100 100 98 100 98 57 29 41 86 82 96 80 90 54 6
100 100 64 78 100 100 18 24 35 59 51 16 5 6 35 49 34 43 59 71 16 6 69 90 99 100 100 85 100 73 51 68 68 51 54 64 60 66
99 98 98 100 96 87 66 42 14 12 5 5 6 21 8 61 46 36 58 68 82 93 97 100 100 100 100 100 100 89 10 5 5 59 87 98 100 86
100 99 100 96 100 100 99 69 53 22 13 53 64 52 58 82 85 89 97 99 99 100 96 97 99 100 100 100 100 97 93 18 34 28 99 100 97 100
100 93 97 100 73 96 84 74 81 45 83 100 83 61 93 100 100 100 100 100 100 100 100 100 100 100 100 100 100 100 100 99 82 85 100 100 100 100

GFSNE_prec_cloud_075.txt.gz
Cloud_Cover
100 100 100 100 100 100 100 100 99 46 86 100 90 70 82 95 100 100 100 100 100 100 100 100 97 38 11 58 56 19 68 100 100 100 100 100 100 100
100 100 100 100 100 100 100 100 93 51 100 100 100 100 100 100 94 100 81 100 100 100 100 100 100 100 100 100 100 100 100 100 100 100 100 100 100 100
100 100 100 100 100 100 100 100 100 100 100 100 100 94 91 100 89 100 88 60 48 100 100 100 100 100 90 69 100 100 100 100 100 100 100 100 100 100
100 100 100 100 100 100 98 99 83 100 100 100 76 95 72 83 100 100 100 34 93 49 100 97 100 100 100 72 13 42 99 100 100 100 100 100 100 100
100 100 100 93 78 97 100 100 100 97 100 100 100 100 100 88 32 47 22 23 18 33 11 26 14 88 98 100 100 69 90 100 100 100 100 100 100 100
100 75 64 76 99 100 100 100 99 98 100 100 100 100 86 41 4 7 50 80 62 26 5 7 40 14 27 64 66 100 100 100 100 99 88 99 98 100
93 97 96 100 100 100 100 100 63 100 100 11 40 17 6 1 1 5 19 58 95 96 61 44 17 5 5 5 5 20 87 92 99 100 100 100 100 100
100 100 100 100 100 94 100 100 100 100 86 54 5 0 0 0 0 0 5 5 10 8 3 3 5 4 0 0 4 5 5 5 5 5 5 35 9 73
100 100 100 100 99 100 100 100 99 100 31 14 3 0 0 1 5 5 5 5 5 0 0 5 5 5 1 3 0 0 5 5 5 5 7 26 16 63
100 100 100 100 100 100 100 100 100 97 9 5 5 5 5 5 5 5 5 5 5 5 5 5 5 2 0 2 3 3 4 4 5 5 5 5 5 5
100 100 100 100 100 100 100 100 94 21 5 5 3 0 3 1 1 3 5 5 5 5 5 5 5 5 5 5 5 2 5 5 5 5 6 98 100 100
100 100 100 100 100 100 100 68 55 32 5 5 5 5 5 4 0 3 5 5 6 23 41 5 86 51 11 5 5 5 5 5 0 5 5 5 18 100
100 100 100 100 94 100 65 77 51 38 13 8 5 5 5 5 5 5 5 64 100 96 82 58 86 100 100 88 5 5 5 5 5 5 5 5 39 94
100 100 100 100 100 100 100 100 96 87 92 39 19 21 25 5 58 17 5 8 64 98 94 100 98 96 100 100 84 5 5 5 5 6 72 78 75 29
100 100 100 99 100 100 100 100 100 99 93 35 5 5 5 8 15 22 96 100 100 98 100 100 100 96 97 100 100 100 99 32 29 13 98 86 10 90
100 100 100 100 100 100 100 100 100 100 100 79 7 5 5 5 5 47 42 100 100 100 95 98 62 25 100 100 100 100 100 93 13 49 84 83 94 68
100 100 100 100 100 100 100 100 100 100 100 54 81 9 5 5 5 27 51 41 92 94 70 81 92 87 86 86 94 62 16 5 5 36 99 100 100 100
100 100 100 100 100 100 100 100 100 53 5 27 7 6 5 5 10 8 5 9 7 5 50 18 80 84 8 5 8 57 39 5 12 96 100 100 100 82
100 100 100 100 100 100 100 97 58 18 23 73 40 42 5 17 9 5 5 5 5 5 5 8 94 98 100 98 25 76 6 5 5 12 7 15 74 8
100 100 100 100 100 100 94 98 88 98 89 100 67 18 9 14 9 9 44 20 5 5 5 5 61 100 100 89 96 92 23 24 22 86 86 10 5 10
100 100 100 100 100 97 90 97 96 100 100 99 100 96 87 84 92 80 99 5 61 70 94 100 94 99 100 100 100 55 16 5 5 7 10 88 100 90
100 100 100 100 96 100 97 100 100 100 100 100 100 100 100 99 100 100 53 10 72 95 100 100 100 100 100 100 100 99 93 5 5 16 43 78 100 97
100 100 100 100 100 100 100 100 100 100 100 100 100 100 100 100 100 100 97 100 100 100 100 100 100 100 100 100 100 100 93 76 62 59 5 6 90 95

GFSNE_prec_cloud_078.txt.gz
Cloud_Cover
100 100 100 100 100 100 100 100 100 100 100 100 100 57 79 14 82 100 88 100 100 100 100 100 97 100 99 97 85 98 52 0 37 100 100 100 100 100
100 100 100 100 100 100 100 100 100 100 100 100 100 99 99 100 100 96 61 96 100 100 100 100 100 99 100 97 100 98 100 75 70 100 100 100 100 100
100 100 100 100 100 100 100 100 100 100 100 100 100 100 100 80 87 100 100 7 60 89 100 100 100 100 88 79 63 85 98 100 100 100 100 100 100 100
100 100 100 100 100 100 100 100 100 100 100 100 100 100 98 100 100 100 79 14 16 5 8 27 100 100 100 100 99 33 96 100 100 100 100 100 100 100
100 100 100 100 100 100 100 100 79 100 100 100 100 100 100 100 8 5 4 0 4 4 5 33 96 94 45 32 24 44 10 17 89 100 98 100 100 100
53 31 62 71 100 100 100 100 78 100 100 100 100 100 100 95 25 5 3 5 0 0 0 3 33 55 65 23 5 5 51 23 52 100 100 100 94 100
98 100 100 100 100 90 98 92 100 100 100 100 100 100 100 100 27 0 4 1 0 0 0 2 2 2 1 1 4 5 5 84 92 90 100 90 59 66
100 100 100 100 100 100 100 100 100 100 100 100 100 100 100 35 5 5 1 5 5 2 0 0 0 5 5 5 5 5 5 5 5 5 11 48 92 100
98 98 100 100 100 100 100 100 99 100 100 100 100 100 100 46 5 6 5 6 5 0 0 0 0 1 5 5 5 5 5 5 5 5 5 14 6 5
100 100 100 100 100 100 100 100 100 100 100 100 100 100 100 5 5 5 5 5 4 0 0 5 5 5 5 5 5 5 13 10 11 5 5 6 5 5
100 100 100 100 100 100 100 100 100 100 100 100 100 100 39 5 5 5 5 5 10 5 5 5 5 5 5 5 5 5 5 5 5 5 17 18 14 88
100 100 100 100 100 100 100 100 100 100 98 90 100 100 60 67 5 5 5 16 56 22 8 7 5 8 38 5 8 5 5 5 5 5 5 5 5 8
100 100 100 100 100 100 100 100 100 100 100 100 100 100 100 86 5 5 5 5 13 80 96 50 68 19 68 67 5 5 8 5 5 5 5 5 17 42
100 100 100 100 100 100 100 100 100 100 100 100 100 100 100 95 58 8 20 5 16 76 96 100 96 89 96 88 24 6 5 5 6 8 69 98 79 82
100 100 100 100 100 100 100 100 100 100 100 100 100 100 100 100 100 94 10 92 100 100 100 100 100 100 100 100 93 76 94 10 5 28 12 18 72 61
100 100 100 100 100 100 100 100 100 100 100 100 100 100 100 100 77 50 34 5 20 45 23 96 100 90 93 100 100 100 100 62 32 5 5 5 35 99
100 100 100 100 100 100 100 100 100 100 100 100 100 100 100 56 48 56 45 59 52 33 14 5 42 23 52 54 88 93 80 28 5 5 21 31 80 100
100 100 100 100 100 100 100 100 100 100 100 100 98 94 74 82 31 18 57 68 81 62 61 50 35 56 32 5 6 55 45 5 5 5 74 87 69 13
100 100 100 100 100 100 100 100 100 100 100 100 100 100 97 59 58 53 58 63 66 69 60 55 65 95 100 100 8 6 21 70 78 70 22 5 6 5
100 100 100 100 100 100 100 100 100 100 100 100 100 100 100 96 70 75 85 68 62 64 66 55 72 61 95 65 98 12 5 36 64 5 5 5 5 9
100 100 100 100 100 100 100 100 100 100 100 100 100 100 98 85 71 91 75 65 51 66 98 47 9 97 100 100 100 41 5 5 12 77 92 98 97 82
99 100 98 93 100 100 100 100 100 100 98 93 100 85 73 84 94 88 91 94 52 97 89 76 98 100 100 100 92 58 44 20 5 5 30 91 99 100
100 100 100 100 100 100 100 99 100 100 100 86 81 93 83 100 100 100 100 100 100 100 100 99 93 97 100 100 100 100 98 72 81 62 5 5 5 93

GFSNE_prec_cloud_081.txt.gz
Cloud_Cover
100 100 100 100 100 100 100 100 100 100 100 100 100 100 100 98 25 47 90 5 100 100 100 100 100 100 100 100 94 84 58 22 5 12 100 89 100 99
100 100 100 100 100 100 100 100 100 100 100 100 100 100 100 92 16 49 95 14 100 100 100 100 100 100 95 100 100 98 100 92 39 49 43 100 100 100
96 100 100 100 98 100 100 100 100 100 100 100 100 100 100 57 89 99 88 100 81 28 100 100 100 100 100 100 100 94 100 100 100 100 100 100 100 100
100 100 100 100 100 99 100 97 100 98 100 100 95 100 100 100 100 100 100 100 100 90 5 1 58 97 99 63 100 82 100 98 100 100 100 100 100 100
100 100 100 98 100 86 48 87 97 97 100 100 100 100 100 100 100 100 100 100 100 39 2 0 0 0 0 1 2 5 5 5 78 100 100 100 100 100
95 100 100 100 98 99 93 82 95 100 98 100 100 100 100 100 100 100 100 100 58 82 3 0 0 0 1 1 4 5 5 5 14 83 100 100 100 100
100 100 100 100 100 99 100 100 100 100 100 100 100 100 100 98 100 100 100 100 99 24 5 0 0 0 0 0 0 1 4 5 22 55 5 34 86 100
100 100 100 100 100 100 100 100 100 100 100 100 100 100 100 100 100 100 100 100 100 5 5 1 3 0 0 0 0 1 4 5 0 5 5 9 64 69
100 100 100 100 100 100 100 100 100 100 100 100 100 100 100 100 100 100 100 74 17 5 5 5 5 3 4 5 5 5 5 5 3 5 5 5 5 5
100 100 100 100 100 100 100 100 100 100 100 100 100 100 100 100 100 100 100 61 8 5 5 5 5 5 5 5 5 5 8 17 17 11 5 5 5 5
100 100 100 100 100 100 100 100 100 100 100 100 100 100 100 100 100 100 100 100 98 14 5 5 5 5 5 5 5 6 5 5 5 5 5 10 6 24
100 100 100 100 100 100 100 100 100 100 100 100 100 100 100 100 100 100 100 100 99 34 5 5 11 10 30 5 6 5 5 5 5 5 17 18 5 5
100 100 100 100 100 100 100 100 100 100 100 100 100 100 100 100 100 100 100 100 98 59 75 48 86 27 52 20 5 5 8 5 5 5 5 5 5 41
100 100 100 100 100 100 100 100 100 100 100 100 100 100 100 100 100 100 100 100 95 96 82 97 89 87 95 100 69 6 5 5 17 6 5 5 24 33
100 100 100 100 100 100 100 100 100 100 100 100 100 100 100 100 100 100 100 100 32 38 83 100 100 100 100 100 88 90 75 19 5 65 10 17 5 11
100 100 100 100 100 100 100 100 100 100 100 100 100 100 100 100 100 100 100 90 38 10 35 60 95 96 91 72 68 72 23 50 59 5 5 5 6 5
100 100 100 100 100 100 100 100 100 100 100 100 100 100 100 100 100 88 74 75 71 62 65 52 47 49 46 53 93 78 39 36 9 5 54 5 5 5
100 100 100 100 100 100 100 100 100 100 100 100 100 100 100 100 100 75 91 73 82 93 91 61 60 74 82 50 58 93 73 27 33 10 41 76 44 5
100 100 100 100 100 100 100 100 100 100 100 100 100 100 100 100 100 69 74 99 92 96 99 69 74 96 100 100 100 8 59 78 36 80 18 27 46 6
100 95 98 100 100 100 100 100 100 100 100 100 100 100 100 98 100 74 68 80 95 98 100 100 93 99 100 100 100 59 5 43 76 8 5 14 5 6
100 100 99 98 100 100 100 99 100 100 100 100 100 100 92 90 96 96 87 95 96 100 100 98 82 80 89 100 100 100 10 5 5 50 79 100 92 49
100 100 100 100 100 100 100 100 100 100 100 100 100 99 99 100 99 89 99 100 90 100 100 100 88 83 100 100 97 98 55 5 5 5 50 92 99 99
100 100 100 100 100 100 100 100 100 100 100 100 100 100 100 100 100 100 100 100 100 99 100 100 100 95 100 99 99 100 87 5 5 5 5 5 33 99

GFSNE_prec_cloud_084.txt.gz
Cloud_Cover
100 100 99 100 100 100 100 100 100 100 100 100 100 100 100 70 58 77 31 94 82 100 100 99 100 100 100 99 78 100 100 98 94 78 61 98 87 88
66 84 86 97 100 100 100 100 100 100 100 100 100 100 100 100 100 87 15 5 7 100 100 100 100 100 89 100 100 100 100 100 93 79 84 52 100 100
32 22 51 98 100 100 84 99 100 100 100 100 100 100 100 100 67 100 43 39 5 100 100 100 100 100 100 100 92 95 100 100 100 100 29 88 100 100
95 89 100 100 100 100 100 100 91 100 100 100 100 100 100 100 100 100 79 85 55 100 100 100 100 100 99 99 69 24 24 99 71 100 100 100 100 100
5 59 100 100 100 100 100 100 100 100 100 100 100 100 100 100 92 100 100 98 59 100 100 100 100 100 5 2 0 0 0 2 85 93 100 100 100 100
5 48 81 64 100 69 56 31 100 100 100 100 100 100 100 100 100 100 100 100 95 100 100 100 100 99 6 5 0 0 0 0 3 5 100 50 46 41
98 100 100 99 100 100 100 100 100 100 100 100 100 100 100 98 100 100 100 100 100 100 100 100 100 26 15 5 0 0 0 0 0 1 5 8 20 98
100 100 100 100 100 100 100 100 100 100 100 100 100 100 100 100 100 100 100 100 100 100 100 100 100 29 5 5 5 5 5 5 1 3 5 5 5 5
100 53 5 56 57 97 100 100 100 100 100 100 100 100 100 100 100 100 100 100 100 100 100 100 97 5 5 5 5 11 16 5 5 4 5 5 5 5
70 5 49 100 100 100 100 100 100 100 100 100 100 100 100 100 100 100 100 100 100 100 100 100 38 41 9 5 11 26 20 5 13 22 19 16 5 5
96 94 67 99 100 100 100 100 100 100 100 100 100 100 100 100 100 100 100 100 100 100 100 100 100 97 36 18 46 5 5 29 23 30 6 5 5 5
100 100 99 100 100 100 100 100 100 100 100 100 100 100 100 100 100 100 100 100 100 100 100 100 100 100 66 42 6 5 5 5 5 10 16 14 7 5
100 100 100 100 100 100 100 100 100 100 100 100 100 100 100 100 100 100 100 100 100 100 100 100 100 100 100 60 15 5 9 5 6 25 5 5 6 16
100 100 94 100 100 100 100 100 100 100 100 100 100 100 100 100 100 100 100 100 100 100 100 100 100 74 93 78 62 5 33 47 58 6 11 5 5 11
100 100 100 100 100 100 100 100 100 100 100 100 100 100 100 100 100 100 100 100 100 100 100 100 100 100 100 99 86 87 58 35 11 76 46 5 6 9
99 100 100 100 100 100 100 100 100 100 100 100 100 100 100 100 100 100 100 100 100 100 100 100 94 92 91 83 83 83 64 50 74 58 5 5 5 5
95 70 90 100 100 100 100 100 100 100 100 100 100 100 100 100 100 100 100 100 100 100 100 100 100 99 100 98 90 96 43 73 47 22 51 57 5 5
100 99 100 100 95 86 100 99 100 100 100 100 100 100 100 100 100 100 100 100 100 100 100 100 100 100 100 100 81 84 92 83 63 46 52 99 43 5
100 91 100 100 100 98 100 95 82 83 100 100 100 100 100 100 100 97 100 100 100 100 100 100 100 100 100 92 34 7 82 78 73 80 46 73 88 5
100 100 99 96 100 100 100 100 100 100 100 100 97 99 87 100 100 100 85 100 100 100 100 95 100 100 100 100 100 82 5 33 66 88 44 17 7 5
100 100 100 96 100 100 100 100 100 100 100 100 100 99 99 100 100 100 88 97 99 100 99 100 100 97 92 97 100 100 98 86 61 48 82 96 98 48
100 100 100 100 100 98 100 100 100 100 100 100 100 100 100 100 100 100 99 100 100 99 100 99 99 100 95 100 100 100 100 100 30 5 80 94 96 96
100 100 100 100 100 100 100 100 100 100 100 100 100 100 100 100 100 100 100 100 100 100 100 100 93 96 95 97 97 100 100 99 37 56 6 5 5 12

GFSNE_prec_cloud_087.txt.gz
Cloud_Cover
100 100 100 97 73 100 100 100 100 100 100 100 100 91 100 100 90 100 100 100 100 99 100 100 100 100 100 100 100 100 100 100 100 66 5 5 8 12
100 87 95 100 100 94 88 100 100 100 100 100 100 100 100 100 100 100 100 100 100 100 100 100 100 100 100 100 100 100 100 100 95 90 0 5 5 26
100 100 100 75 90 74 100 100 100 100 100 100 100 100 100 100 100 100 100 100 100 100 100 100 98 100 100 100 100 100 100 100 100 100 92 3 50 48
86 99 99 97 100 100 100 100 100 100 100 100 100 100 100 99 100 100 98 100 100 100 100 27 100 100 100 100 99 99 82 100 100 100 100 100 100 100
100 100 100 100 100 100 100 100 100 100 100 100 100 100 100 100 100 100 100 100 100 100 95 100 100 100 100 100 100 92 6 40 80 92 100 100 100 100
7 19 90 100 100 100 100 100 100 100 100 100 100 100 100 100 100 100 100 100 100 100 100 100 100 100 100 100 100 99 7 5 26 97 73 100 100 100
95 100 100 100 94 96 85 92 94 99 100 100 100 100 100 100 100 100 100 100 100 100 100 100 100 100 100 100 100 100 8 5 5 10 76 10 100 95
100 100 100 100 100 99 96 88 83 97 94 100 100 100 100 100 100 100 100 100 100 100 100 100 100 100 100 100 100 100 5 5 5 5 5 5 5 5
100 100 99 25 9 16 77 70 100 100 100 100 100 100 100 100 100 100 100 100 100 100 100 100 100 100 100 100 100 77 42 17 17 5 5 5 5 5
100 100 55 14 78 96 100 100 97 100 100 100 100 100 100 100 100 100 100 100 100 100 100 100 100 100 100 100 100 100 90 5 10 9 21 28 11 5
100 62 33 50 85 99 100 100 100 100 100 100 100 100 100 100 100 100 100 100 100 100 100 100 100 100 100 100 100 100 92 97 90 66 49 41 21 5
5 39 17 44 62 96 98 99 100 100 100 100 100 100 100 100 100 100 100 100 100 100 100 100 100 100 100 100 100 100 100 72 16 5 5 5 5 5
8 16 73 87 100 100 100 100 100 100 100 100 100 100 100 100 100 100 100 100 100 100 100 100 100 100 100 100 100 100 100 22 25 26 6 7 16 17
31 52 64 73 100 92 99 100 100 100 100 100 100 100 100 100 100 100 100 100 100 100 100 100 100 100 100 100 100 99 96 56 40 34 59 21 5 6
53 67 45 85 89 100 100 100 100 100 100 100 100 100 100 100 100 100 100 100 100 100 100 100 100 100 100 100 100 98 100 96 70 82 52 9 12 12
66 84 58 72 100 100 100 100 100 100 100 100 100 100 100 100 100 100 100 100 100 100 100 100 100 100 100 100 100 56 90 92 100 94 29 19 20 14
100 82 52 63 96 100 100 100 100 100 100 100 100 100 100 100 100 100 100 100 100 100 100 100 100 100 100 100 100 100 100 84 69 85 57 70 36 39
100 96 44 94 100 100 100 100 100 100 100 100 100 100 100 100 99 100 97 100 100 100 100 100 100 100 100 100 100 100 96 87 69 65 70 100 89 5
100 100 100 100 100 100 100 100 100 100 100 100 100 100 100 100 100 99 99 100 99 100 100 100 100 100 100 100 100 100 100 83 74 82 35 99 100 91
100 100 98 100 100 100 100 100 99 92 100 100 100 100 100 100 100 98 100 100 100 98 100 98 100 100 100 100 100 100 69 74 68 65 72 81 100 100
100 100 100 100 100 100 100 99 98 100 100 100 100 100 100 100 100 100 100 100 100 100 100 99 72 100 100 100 100 100 83 57 49 72 66 93 100 100
100 100 100 100 100 100 94 85 99 100 100 100 100 100 99 99 100 100 100 100 100 100 100 100 97 98 100 100 100 100 100 94 84 81 40 98 100 100
100 100 100 100 100 95 96 99 100 100 100 100 99 99 99 99 100 100 100 75 75 80 87 100 100 100 100 100 100 100 100 100 99 25 82 100 100 100

GFSNE_prec_cloud_090.txt.gz
Cloud_Cover
100 100 100 100 100 86 100 100 100 100 100 100 100 100 78 100 100 100 100 100 100 98 94 100 100 100 100 100 100 100 100 100 87 100 42 1 0 1
100 100 93 31 21 73 100 100 100 100 100 100 100 100 100 54 97 100 100 100 99 98 100 100 100 100 100 100 100 100 100 100 100 100 5 0 0 0
98 96 93 96 100 100 100 100 100 100 100 100 100 100 100 100 100 100 100 100 100 100 93 100 100 100 100 100 100 100 100 100 100 100 100 5 0 1
100 100 100 100 100 100 100 100 100 100 100 100 100 100 100 100 100 100 100 100 100 100 98 100 100 100 100 100 100 100 100 100 100 100 100 99 40 18
100 100 100 100 100 100 100 92 100 100 100 100 100 100 100 100 100 100 100 100 100 100 100 100 100 100 100 100 100 100 100 100 100 100 100 100 100 100
100 76 75 100 100 100 100 100 100 100 100 100 100 100 100 100 100 100 100 100 100 100 100 100 100 100 100 100 100 100 100 100 100 100 100 100 100 100
100 100 100 100 100 100 98 100 100 100 100 100 100 100 100 100 89 68 88 100 100 100 100 100 100 100 100 100 100 100 100 100 100 100 90 99 100 100
100 100 100 100 100 100 100 100 100 100 100 100 100 100 100 100 99 100 100 100 100 100 100 100 100 100 100 100 100 100 100 100 100 100 52 6 89 100
100 100 100 100 52 2 5 5 45 86 100 99 100 100 100 100 100 100 99 99 100 100 100 100 100 100 100 100 100 100 100 100 100 100 100 92 100 77
100 100 100 76 5 3 5 5 6 88 48 41 88 100 100 100 100 100 100 100 100 100 100 100 100 100 100 100 100 100 100 100 100 100 100 100 98 91
100 100 100 11 5 5 5 5 18 69 87 95 100 100 100 100 100 100 100 100 100 100 100 100 100 100 100 100 100 100 100 100 100 100 100 100 98 26
100 97 13 5 5 5 47 66 94 99 100 99 100 100 100 100 100 100 100 100 100 100 100 100 100 100 100 100 100 100 100 100 100 100 100 100 100 95
6 5 6 5 5 78 92 86 82 86 71 77 100 100 100 100 100 100 100 100 100 100 100 100 100 100 100 100 100 100 100 100 100 100 100 100 100 90
5 5 5 5 52 31 20 9 60 98 89 79 100 100 100 100 100 100 100 100 100 100 100 100 100 100 100 100 100 100 100 100 100 100 100 100 100 100
6 5 5 5 55 5 5 62 76 65 73 83 100 100 100 100 100 100 100 100 100 100 100 100 100 100 100 100 100 100 100 100 100 100 100 100 100 100
30 39 36 37 67 5 5 28 64 74 62 99 100 100 100 100 100 100 100 100 100 100 100 100 100 100 100 100 100 100 100 100 100 100 100 100 100 66
99 99 100 99 74 64 84 92 89 76 62 100 96 65 79 95 100 100 100 100 100 100 100 100 100 100 100 100 100 100 100 100 100 100 100 100 89 74
100 100 100 95 100 84 100 100 100 100 100 98 96 88 97 95 100 100 100 100 100 100 100 100 100 100 100 100 100 100 100 100 100 100 100 100 100 100
100 100 100 98 100 100 100 100 100 100 87 100 98 95 100 97 100 99 100 100 100 100 87 75 74 69 98 100 90 100 73 86 100 100 100 100 100 57
100 100 100 100 100 100 100 100 100 91 97 96 98 97 100 100 100 100 78 99 100 100 99 93 82 80 100 100 100 100 99 74 84 95 72 100 98 93
100 100 100 100 100 100 98 100 100 99 100 100 87 82 98 100 100 95 87 100 100 99 99 97 99 88 70 92 100 100 100 86 69 86 94 100 100 100
100 100 100 100 100 100 100 100 92 100 98 100 73 70 79 85 99 100 96 98 87 77 80 84 80 77 96 81 83 81 100 100 100 100 100 100 100 100
100 100 100 100 100 100 100 100 100 100 100 90 100 100 100 100 86 85 99 93 100 86 70 71 96 91 99 82 60 85 73 100 100 96 100 100 100 100

GFSNE_prec_cloud_093.txt.gz
Cloud_Cover
100 100 100 100 100 99 100 100 100 97 97 100 99 100 98 100 100 91 97 100 98 90 100 100 100 100 100 100 100 100 100 100 100 98 83 96 5 9
100 100 100 100 100 98 96 100 100 100 80 100 100 92 100 100 100 100 100 80 100 100 100 100 99 100 100 100 100 100 100 100 100 100 76 86 13 4
100 100 100 100 100 100 100 100 100 97 100 100 100 100 100 100 100 100 100 100 100 100 100 98 100 100 100 100 100 100 100 100 100 100 100 99 89 5
100 100 100 100 100 79 100 100 100 100 100 100 100 100 100 100 100 100 100 100 100 100 100 100 100 100 99 100 100 100 100 100 100 100 100 100 100 18
98 94 100 73 100 100 100 100 100 100 100 100 100 100 100 100 100 100 100 100 100 100 99 100 100 100 100 100 100 100 100 100 100 100 100 100 100 100
100 100 100 96 84 100 100 100 100 100 100 100 100 100 100 100 100 100 100 100 100 100 67 100 100 100 100 100 100 100 100 100 100 100 100 100 100 100
100 100 100 100 84 86 82 100 100 100 100 100 100 100 100 100 100 100 100 100 100 100 100 100 100 100 100 100 100 100 100 100 100 100 100 100 100 100
99 54 71 100 100 100 100 100 100 100 100 100 100 100 100 100 100 99 100 100 100 86 100 100 100 100 100 100 100 100 100 100 100 100 100 100 100 100
87 100 100 100 100 62 3 0 2 59 98 100 97 98 100 88 93 100 100 100 100 100 100 100 100 100 100 100 100 100 100 100 100 100 100 100 100 100
100 100 100 100 96 4 0 0 0 2 4 5 5 26 76 52 100 99 100 100 100 100 100 100 100 100 100 100 100 100 100 100 100 100 100 100 100 100
100 100 100 100 36 0 0 0 0 5 19 6 51 85 98 74 90 100 100 100 100 100 100 100 100 100 100 100 100 100 100 100 100 100 100 100 100 100
100 100 100 86 5 5 5 5 5 5 69 79 61 66 80 100 80 100 99 100 100 100 100 100 100 100 100 100 100 100 100 100 100 100 100 100 100 100
96 63 15 5 5 5 5 5 5 52 87 75 68 98 84 96 93 100 100 100 100 100 100 100 100 100 100 100 100 100 100 100 100 100 100 100 100 100
10 5 5 5 5 5 15 5 5 5 5 36 23 71 94 99 99 99 100 100 100 100 100 100 100 100 91 87 99 100 100 100 100 100 100 100 100 100
74 72 16 5 24 5 6 8 5 5 5 5 57 68 85 83 93 81 61 84 89 100 100 100 100 100 100 100 98 100 100 100 100 100 100 100 100 100
100 100 37 59 77 89 83 100 50 42 59 60 80 97 98 84 99 100 100 100 99 95 88 79 90 98 96 100 99 100 100 100 100 100 100 100 100 100
100 93 87 81 83 86 100 100 100 91 67 93 74 21 19 34 60 70 59 80 73 87 92 87 91 80 89 98 91 92 100 99 100 100 100 100 100 100
99 84 88 85 94 96 100 100 100 100 94 100 100 100 100 8 29 83 80 83 80 96 100 93 92 88 81 83 90 79 90 95 100 100 100 100 100 100
100 82 80 93 92 98 100 100 100 100 100 100 82 78 100 60 100 91 62 80 57 87 65 80 74 83 87 79 64 70 67 80 71 100 100 100 100 100
100 87 84 94 80 100 100 100 100 100 100 100 100 75 75 68 77 82 57 92 89 92 86 84 76 82 100 100 100 100 94 51 45 74 99 100 100 100
100 100 100 92 80 90 100 100 100 100 100 100 100 96 79 79 84 76 85 80 92 84 67 64 87 91 72 53 53 52 80 60 26 74 64 50 70 89
100 100 100 100 87 97 100 100 100 100 100 100 100 100 87 79 97 80 78 83 94 97 82 76 74 84 92 72 37 69 73 8 12 86 92 74 76 84
100 100 100 100 100 100 100 100 100 100 91 96 100 100 100 98 89 99 83 99 100 100 64 91 88 84 65 85 57 95 80 53 97 92 66 66 17 91

GFSNE_prec_cloud_096.txt.gz
Cloud_Cover
100 100 100 100 100 100 100 100 100 100 100 100 100 100 100 100 100 95 100 100 100 98 100 92 100 52 74 91 100 100 100 100 100 100 100 100 74 95
100 100 100 100 100 99 100 100 100 100 100 100 99 90 88 93 100 100 100 100 100 88 99 56 71 99 100 100 100 100 100 100 100 100 100 100 94 100
100 100 100 100 100 100 100 100 100 100 100 97 98 87 98 100 100 100 100 100 100 100 83 97 91 100 100 100 100 100 100 100 100 100 100 100 100 100
100 100 100 100 100 100 100 100 100 100 88 95 100 100 100 100 100 100 100 100 100 100 91 100 100 100 100 98 100 100 100 100 100 100 100 100 100 100
100 100 100 100 100 100 100 72 100 95 100 100 100 100 100 100 100 100 100 100 100 100 100 100 100 100 100 100 100 100 100 100 100 100 100 100 100 100
100 97 98 100 100 91 100 96 98 100 100 100 100 100 100 100 100 100 100 100 100 100 94 100 100 100 100 100 100 100 100 100 100 100 100 100 100 100
100 100 100 100 97 27 45 68 88 97 100 100 100 100 100 100 100 100 100 100 98 100 96 98 100 100 100 100 100 100 100 100 100 100 100 100 100 100
16 5 5 5 6 73 69 36 8 9 36 72 100 100 100 100 100 100 100 23 70 78 100 100 100 100 100 100 100 100 100 100 100 100 100 100 100 100
30 43 94 79 99 100 60 5 4 3 10 21 99 100 100 100 100 88 5 24 99 86 100 100 100 100 100 100 100 100 100 100 100 100 100 100 100 100
100 49 89 100 100 100 12 3 4 0 0 1 4 45 37 25 9 7 59 74 92 99 100 100 100 100 100 100 100 100 100 100 100 100 100 100 100 100
46 11 32 72 100 97 1 0 0 0 4 3 5 5 5 5 51 36 67 62 92 87 87 100 100 100 100 100 100 100 100 100 100 100 100 100 100 100
99 34 68 100 100 56 0 0 0 5 5 6 5 5 5 36 33 16 57 5 38 85 100 100 100 100 100 100 100 100 100 100 100 100 100 100 100 100
83 47 100 85 56 3 3 2 5 5 5 5 5 36 60 8 82 5 15 67 85 96 100 100 100 100 100 100 100 100 100 100 100 100 100 100 100 100
100 77 9 5 5 5 21 5 5 6 5 5 5 7 5 5 44 82 97 96 100 75 74 100 100 100 100 100 100 100 100 100 100 100 100 100 100 100
60 5 5 6 5 7 12 5 5 5 5 69 26 47 17 12 45 58 52 54 43 31 32 13 49 72 66 95 96 98 100 98 84 98 100 100 100 100
97 35 32 97 50 7 52 76 74 64 64 96 100 85 65 65 66 58 39 81 69 56 55 34 17 48 80 64 30 70 98 79 95 94 90 99 100 100
73 100 100 100 100 85 95 72 50 74 85 100 100 100 67 90 96 90 89 61 63 65 34 27 45 21 30 47 60 66 33 70 62 80 66 90 96 98
100 100 100 100 78 89 100 100 100 100 100 100 100 100 99 100 100 100 100 89 74 72 93 58 61 78 53 95 58 85 35 31 48 55 72 72 54 62
100 100 100 98 80 100 100 100 100 100 100 100 100 100 100 100 100 100 100 85 85 75 70 36 54 95 53 32 78 61 36 62 45 46 63 98 100 63
100 100 100 84 100 100 100 100 98 80 100 100 100 100 100 100 100 99 92 100 74 66 70 72 83 80 36 58 62 84 67 34 16 26 62 53 75 84
100 100 100 100 100 100 100 100 100 97 100 100 100 100 100 100 100 100 100 84 80 82 76 73 98 93 84 94 64 15 16 11 19 50 51 69 44 31
100 100 91 96 100 100 100 100 100 100 100 100 100 100 100 100 100 100 99 100 100 69 80 97 99 98 95 85 70 75 16 15 20 5 44 100 94 88
100 100 100 100 100 100 100 100 100 100 100 100 100 100 100 100 100 99 90 86 99 78 95 95 98 100 99 92 80 60 15 87 93 100 88 93 76 100

GFSNE_prec_cloud_099.txt.gz
Cloud_Cover
100 100 100 100 100 100 100 100 100 100 100 100 100 100 97 100 100 100 100 100 100 100 100 100 85 62 47 40 4 99 100 100 100 100 100 100 100 100
100 100 100 100 100 100 100 100 100 100 100 100 100 100 100 100 100 100 100 100 100 98 97 75 84 98 18 5 6 77 100 100 100 100 100 100 100 100
100 100 100 100 100 100 100 100 100 100 100 100 100 100 100 100 100 97 100 100 100 100 99 100 100 5 5 60 57 94 100 100 100 100 100 100 100 100
100 100 100 100 100 100 100 100 100 100 100 100 100 100 100 100 100 100 100 100 100 100 100 100 32 25 5 100 100 100 100 100 100 100 100 100 100 100
100 100 100 100 100 100 100 100 80 100 100 100 100 100 100 100 100 100 100 100 100 100 100 100 100 64 18 100 100 100 100 100 100 100 100 100 100 100
100 100 100 100 100 100 100 100 100 97 98 100 100 100 100 98 100 100 100 100 100 100 100 99 12 5 28 100 100 100 100 100 100 100 100 100 100 100
100 100 100 100 100 100 100 100 100 55 89 96 100 100 100 100 100 100 100 100 100 100 47 2 5 13 100 100 100 100 100 100 100 100 100 100 100 100
100 100 61 100 62 75 64 39 25 94 100 100 100 100 100 100 100 100 100 100 97 0 3 5 5 32 96 98 100 100 100 100 100 100 100 100 100 100
100 100 24 87 77 98 73 53 9 5 11 70 100 60 100 100 100 100 100 76 7 5 5 5 5 17 100 98 100 100 100 100 100 100 100 100 100 100
100 39 81 28 68 100 100 40 18 70 100 57 5 71 98 89 99 35 31 5 5 5 5 5 10 28 76 100 100 100 100 100 100 100 100 100 100 100
44 40 24 5 26 100 99 37 74 58 8 37 9 0 1 3 6 5 5 5 5 5 5 5 9 32 33 49 93 100 100 100 100 100 100 100 100 100
71 78 57 58 99 100 100 90 26 96 64 4 5 4 5 5 5 5 5 7 5 5 5 5 5 5 20 67 100 100 100 100 100 100 100 100 100 100
98 100 100 100 100 100 98 82 20 5 2 5 5 0 5 5 5 5 5 66 41 11 5 11 6 55 81 80 100 100 100 100 100 100 100 100 100 100
100 100 100 100 66 85 100 74 22 5 5 5 5 5 4 5 5 5 6 5 5 62 7 94 24 15 58 95 100 100 100 100 100 100 100 98 100 100
100 100 100 100 99 100 100 30 5 5 5 5 5 5 5 29 38 40 56 22 24 10 32 41 24 6 13 5 53 96 100 93 100 98 100 100 100 100
100 100 94 100 100 100 98 18 8 5 49 62 64 54 49 33 100 67 60 38 53 46 52 100 79 34 19 43 34 58 46 76 72 62 73 79 78 97
100 100 100 100 100 100 100 69 37 81 99 95 79 83 98 96 100 100 99 96 91 100 97 88 67 30 27 14 50 36 28 57 63 74 92 90 66 58
100 100 100 100 100 100 100 89 66 95 100 100 100 99 95 97 100 100 100 100 100 100 100 79 80 43 31 46 7 28 61 81 69 71 74 66 71 74
100 100 100 100 100 100 100 72 96 100 96 100 100 100 98 100 100 100 100 100 100 100 100 77 41 68 83 48 62 68 59 77 63 60 90 76 46 33
100 100 100 100 100 100 99 100 100 97 92 100 100 100 99 94 100 100 100 100 100 100 100 100 61 59 49 53 55 43 100 57 54 52 75 69 52 20
100 100 100 100 100 100 100 100 100 100 100 100 100 100 100 97 100 100 100 100 100 100 100 100 100 93 65 29 38 30 20 59 90 84 68 43 71 42
100 100 100 100 100 100 100 100 100 100 99 100 100 100 100 100 100 100 100 100 100 97 95 100 84 98 70 69 64 75 66 28 75 100 100 100 96 92
100 100 100 100 100 100 100 100 100 100 100 100 100 100 100 100 100 100 100 100 100 100 100 100 90 70 71 95 96 83 78 39 43 97 100 99 56 98

GFSNE_prec_cloud_102.txt.gz
Cloud_Cover
100 100 100 100 100 100 100 100 100 100 100 100 94 63 100 100 100 100 100 100 100 100 100 100 98 99 99 99 32 94 100 100 100 100 100 100 100 78
100 100 100 100 100 100 100 100 100 100 100 100 100 100 100 100 94 100 100 100 100 100 100 100 100 100 100 32 10 35 97 100 100 100 100 100 100 100
100 100 100 100 100 100 100 96 100 100 100 100 100 100 98 100 100 100 97 100 100 100 100 100 100 100 98 5 0 0 1 94 100 100 100 100 100 100
100 100 100 100 100 100 100 100 100 100 100 100 98 100 100 100 100 100 100 100 100 100 100 100 100 100 5 5 0 1 4 32 100 100 100 100 100 100
100 100 100 100 100 100 100 100 100 100 100 100 100 100 100 100 100 100 100 100 100 100 100 100 100 100 8 3 4 5 5 48 100 100 100 100 100 100
100 100 100 100 100 100 100 100 100 100 100 100 100 100 95 81 92 100 100 96 99 100 100 100 99 9 1 2 5 70 87 86 100 100 100 100 100 100
100 100 100 100 100 100 100 100 100 100 98 100 100 100 100 100 100 100 100 100 100 100 100 74 2 3 2 5 19 85 96 98 100 100 100 100 100 100
100 100 100 100 100 100 100 100 100 100 100 100 100 100 100 100 100 100 100 100 100 69 3 0 2 0 5 5 6 54 100 100 100 100 100 100 100 100
100 100 100 100 100 100 100 100 100 100 100 99 100 100 100 100 100 100 100 100 100 28 0 0 1 1 5 8 6 100 100 100 100 100 100 100 100 100
100 100 100 83 100 100 100 100 100 100 87 72 81 75 100 62 100 100 100 86 23 4 0 5 5 5 5 5 13 93 98 100 100 100 100 100 100 100
100 100 100 100 100 100 100 83 100 100 97 100 99 62 61 14 12 27 7 6 5 5 5 5 5 5 5 5 5 44 72 99 100 100 100 100 100 100
100 100 100 100 100 100 92 100 90 100 28 100 82 86 67 18 6 0 0 5 5 5 5 5 5 5 7 5 5 7 25 87 100 100 84 98 100 76
100 100 100 100 100 100 100 100 100 100 92 77 92 96 92 49 5 0 1 98 22 14 5 14 46 5 27 19 54 79 100 100 100 100 100 100 100 100
100 100 100 100 100 100 100 100 100 100 100 100 94 99 100 6 5 5 5 7 31 9 5 29 67 22 71 36 45 86 84 100 100 100 100 100 100 100
100 100 100 100 100 100 100 100 100 100 100 100 100 100 73 58 24 43 28 31 36 97 31 86 67 78 73 77 47 38 76 94 99 100 100 100 100 100
100 100 100 100 100 100 100 100 100 100 100 100 100 84 97 100 92 34 75 57 70 100 100 96 100 73 73 60 18 45 62 60 73 69 99 100 100 100
100 100 100 100 100 100 100 100 100 100 100 100 100 96 88 100 99 75 53 98 96 100 100 100 100 100 100 100 59 33 18 25 25 23 17 27 18 21
100 100 100 100 100 100 100 100 100 100 100 100 100 100 100 100 100 98 96 100 100 100 100 100 100 100 100 100 53 45 40 64 74 61 61 69 56 30
100 100 100 100 100 100 100 100 100 100 100 100 100 100 100 100 100 100 100 100 100 100 100 100 100 100 100 100 59 99 78 54 47 75 61 49 54 55
100 100 100 100 100 100 100 100 100 100 100 100 100 100 99 100 100 100 100 100 100 100 100 100 100 100 100 91 96 88 100 75 44 45 21 47 14 10
100 100 100 100 100 100 100 100 100 100 100 100 100 100 100 100 100 100 100 100 100 100 100 100 100 100 100 100 90 86 100 100 89 44 61 54 69 36
100 100 100 100 100 100 100 100 100 100 100 100 100 100 100 100 100 100 100 100 100 100 100 100 100 100 100 100 100 97 64 65 100 96 55 49 62 100
100 100 100 100 100 100 100 100 100 100 100 100 100 100 100 100 100 100 100 100 100 100 100 100 100 100 100 100 100 100 95 68 13 60 56 74 16 7

GFSNE_prec_cloud_105.txt.gz
Cloud_Cover
100 100 100 100 100 100 100 100 100 100 100 100 100 100 93 71 96 83 100 100 100 100 100 100 100 100 100 100 100 100 84 58 100 100 100 100 100 100
100 100 100 100 100 100 100 100 100 100 100 100 100 100 100 100 99 100 100 98 100 100 100 100 100 100 98 100 90 86 0 18 100 100 100 100 100 100
100 100 100 96 100 100 100 100 100 100 100 100 100 100 100 100 100 100 100 100 100 100 100 100 100 100 100 100 100 67 0 0 92 100 100 100 100 100
100 100 100 100 100 100 100 100 100 100 100 100 100 100 100 100 100 100 100 100 100 100 100 100 100 100 96 100 24 2 0 0 53 100 100 100 100 96
100 100 100 100 100 100 100 100 100 100 97 96 100 100 100 100 100 100 100 100 100 100 100 100 100 90 100 96 1 0 0 4 11 100 98 100 100 100
100 100 100 100 100 100 100 100 100 100 100 100 100 100 100 100 100 100 100 100 100 100 100 100 100 100 53 82 0 1 20 16 100 100 95 100 100 100
100 100 100 100 100 100 100 100 100 100 100 100 100 100 100 100 100 100 100 100 100 100 100 100 100 52 3 5 1 5 3 68 100 100 92 100 100 100
100 100 100 100 100 100 100 100 100 100 100 100 100 100 100 100 100 100 100 100 100 100 95 72 94 70 2 3 4 30 96 100 88 97 100 100 100 100
100 100 100 100 100 100 100 100 100 100 100 100 100 100 100 100 100 100 100 100 100 100 100 83 91 59 3 5 5 100 100 98 63 58 87 100 100 100
100 100 100 100 100 100 100 100 100 100 100 100 100 100 100 100 100 100 100 100 100 100 100 81 23 5 2 5 12 84 29 60 71 18 24 98 100 100
100 100 100 100 100 100 100 100 100 100 100 100 100 100 100 100 100 100 100 100 93 96 23 5 5 5 5 5 5 6 5 5 7 73 61 100 100 100
100 100 100 100 100 100 100 100 100 100 100 100 100 100 100 100 100 100 100 100 57 34 5 5 7 6 5 5 6 5 5 5 5 11 39 31 98 100
100 100 100 100 100 100 93 100 100 100 100 100 100 100 100 100 100 93 100 100 92 50 5 7 66 21 30 11 18 16 5 55 61 76 90 96 97 83
100 100 100 100 100 100 100 100 100 100 100 100 100 98 98 100 100 99 100 85 98 5 5 6 49 12 62 70 20 9 22 74 73 98 93 100 100 100
100 100 100 100 100 100 100 100 100 100 100 100 100 100 100 100 100 100 66 100 98 28 72 100 66 95 60 69 38 75 72 42 28 49 100 100 100 100
100 100 100 100 100 100 100 100 100 100 100 100 100 100 100 100 100 100 100 100 93 100 47 92 100 82 86 90 64 99 93 76 75 74 92 100 100 100
100 100 100 100 100 100 100 100 100 100 100 100 100 100 100 100 100 100 100 100 99 100 100 100 100 100 100 100 99 96 100 95 75 70 70 78 95 99
100 100 100 100 100 100 100 100 100 100 100 100 100 100 100 100 100 100 100 100 100 100 100 100 100 100 100 100 100 81 100 97 82 87 79 84 79 82
100 100 100 100 100 100 100 100 100 100 100 100 100 100 100 100 100 100 100 100 89 99 100 100 100 100 100 100 100 100 100 100 84 76 88 88 87 81
100 100 100 100 100 100 100 100 100 100 100 100 100 100 100 100 100 100 100 100 93 99 100 100 100 100 100 100 100 100 100 100 100 100 73 48 78 76
100 100 100 100 100 100 100 100 100 100 100 100 100 100 100 100 100 100 100 100 100 100 100 100 100 100 100 100 98 98 100 100 100 100 100 73 68 70
100 100 100 100 100 100 100 100 100 100 100 100 100 100 100 100 100 100 100 100 100 100 100 100 100 100 100 100 97 100 100 100 100 100 100 97 84 87
100 100 100 100 100 100 100 100 100 100 100 100 100 100 100 100 100 100 100 100 100 100 100 100 100 100 100 100 100 100 100 98 100 100 100 100 100 23

GFSNE_prec_cloud_111.txt.gz
Cloud_Cover
100 100 100 100 100 100 100 100 100 100 100 100 100 100 100 100 100 100 100 100 100 100 100 100 100 100 100 96 90 96 29 5 52 74 100 100 100 100
100 100 100 100 100 100 100 100 100 100 100 100 100 100 100 100 100 100 100 100 100 100 100 100 100 100 100 82 82 81 100 12 100 100 100 100 100 100
100 100 100 100 100 100 100 100 100 100 100 100 100 100 100 100 100 100 100 100 100 100 100 100 100 100 100 100 60 85 93 100 96 60 41 100 100 100
100 100 100 100 100 100 100 100 100 100 100 100 100 100 100 100 100 100 100 100 100 100 100 100 100 100 27 100 100 100 100 71 100 4 100 100 100 100
100 100 100 100 100 100 100 100 100 100 100 100 100 100 100 100 100 100 100 100 100 100 100 100 100 100 99 100 100 100 100 70 92 61 100 100 100 100
100 100 100 100 100 100 100 100 100 100 100 100 100 100 100 100 100 100 100 100 100 100 100 100 100 100 100 100 100 90 16 13 100 100 100 100 100 100
100 100 100 100 100 100 100 100 100 100 100 100 100 100 100 100 100 100 100 100 100 100 100 100 100 100 100 100 100 99 66 90 100 74 90 100 100 100
100 100 100 100 100 100 100 100 100 100 100 100 100 100 100 100 100 100 100 100 100 100 100 100 100 100 100 100 100 100 100 100 99 18 100 100 100 100
100 100 100 100 100 100 100 100 100 98 100 100 100 100 100 100 100 100 100 100 100 100 100 100 100 100 100 100 100 100 100 54 27 14 100 100 92 99
100 100 100 100 100 96 100 100 100 100 100 100 100 100 100 100 100 100 100 100 100 100 100 100 100 100 100 100 99 97 54 25 10 16 26 14 6 99
100 95 100 96 97 100 100 100 100 100 100 100 100 100 100 100 99 99 100 100 100 100 100 100 100 100 100 100 90 60 91 100 63 32 10 4 1 34
94 100 100 100 100 100 100 100 100 91 100 100 100 100 100 89 74 96 100 100 100 100 93 100 100 100 100 99 100 100 100 100 100 5 36 5 3 4
100 100 100 100 100 100 100 100 100 100 100 100 100 98 99 100 100 100 98 100 100 100 100 100 100 100 100 100 100 100 100 100 92 56 5 5 5 5
100 100 100 100 100 100 100 100 100 100 100 100 100 100 97 98 85 100 95 100 100 100 100 100 100 100 100 100 100 100 100 100 71 63 19 5 5 5
100 100 100 100 100 100 100 100 100 100 100 100 100 100 100 100 100 100 98 100 100 100 100 100 100 100 100 100 100 100 100 100 95 46 57 43 41 62
100 100 100 100 100 100 100 100 100 100 100 100 100 100 100 100 100 100 100 100 100 100 100 100 100 100 100 100 100 100 100 99 84 88 100 86 80 54
100 100 100 100 100 100 100 100 100 100 100 100 100 100 100 100 100 100 100 100 100 100 100 100 100 100 100 100 100 100 100 87 95 100 100 100 100 100
100 100 100 100 100 100 100 100 100 100 100 100 100 100 100 100 100 100 100 100 100 100 100 100 100 100 100 100 100 100 100 78 100 100 100 100 100 100
100 100 100 100 100 100 100 100 100 100 100 100 100 100 100 100 100 100 100 100 100 100 100 100 100 100 100 100 100 100 100 93 98 100 100 100 100 100
100 100 100 100 100 100 100 100 100 100 100 100 100 100 100 100 100 100 100 100 100 100 100 100 100 100 100 100 100 100 100 100 100 100 100 100 100 100
100 100 100 100 100 100 100 100 100 100 100 100 100 100 100 100 100 100 100 100 100 100 100 100 100 89 100 100 100 100 100 100 100 100 100 100 100 100
100 100 100 100 100 100 100 100 100 100 100 100 100 100 100 100 100 100 100 100 100 100 100 100 100 100 100 100 96 100 100 98 99 100 100 100 100 100
100 100 100 100 100 100 100 100 100 100 100 100 100 100 100 100 100 100 100 100 100 100 100 100 100 100 100 100 100 100 100 100 97 100 100 100 100 100

GFSNE_prec_cloud_114.txt.gz
Cloud_Cover
100 100 100 100 100 100 100 100 100 100 100 100 100 100 100 100 100 100 100 100 100 100 100 100 100 100 100 100 100 100 100 100 95 28 4 0 8 25
100 100 100 100 100 100 100 100 100 100 100 100 100 100 100 100 100 100 100 100 100 100 100 100 100 100 100 100 99 100 93 100 72 5 1 2 66 100
100 100 100 100 100 100 100 100 100 100 100 100 100 100 100 100 100 100 100 100 100 100 100 100 100 100 76 100 98 88 61 60 91 8 42 10 100 100
100 100 100 100 100 100 100 100 100 100 100 100 100 100 100 100 100 100 100 100 72 99 100 100 100 100 98 66 92 98 100 100 98 100 100 60 100 100
100 100 100 100 100 100 100 100 100 100 100 100 100 100 100 100 100 100 100 100 100 100 100 100 100 100 100 100 100 100 100 100 100 100 100 100 100 100
100 100 100 100 100 100 100 100 100 100 100 100 100 100 100 100 100 100 100 100 100 100 100 100 100 100 100 100 100 100 100 100 100 100 100 100 100 100
100 100 100 100 100 100 100 100 100 100 100 100 100 100 100 100 100 100 100 100 100 100 100 100 100 100 100 100 100 100 100 100 100 100 100 100 100 100
100 100 100 100 100 100 100 100 100 100 100 100 100 100 100 100 100 100 100 100 100 100 100 100 100 100 100 100 100 100 100 100 100 100 100 100 100 100
100 100 100 100 100 100 100 100 100 100 100 100 100 100 100 100 100 100 100 100 100 100 100 100 100 100 100 100 100 100 100 100 99 100 100 99 69 100
100 100 100 98 78 98 100 100 100 100 100 100 100 100 100 100 100 100 100 100 100 100 99 100 100 100 100 100 100 94 100 99 100 100 100 100 31 53
6 14 11 36 16 100 80 42 29 100 100 100 100 100 100 100 100 100 100 100 100 100 100 100 92 99 100 100 85 84 99 100 90 99 100 96 81 64
70 16 99 100 96 100 100 100 100 61 96 100 100 92 100 100 100 100 100 87 100 100 100 100 100 50 8 5 83 12 86 100 100 100 99 74 100 8
100 100 100 100 100 100 100 100 100 100 100 100 99 100 100 100 100 100 100 100 100 100 98 99 100 90 62 21 31 100 96 100 100 100 100 100 41 5
82 100 100 100 100 98 100 100 100 100 100 100 100 100 100 100 100 100 100 100 100 100 100 99 100 100 87 80 42 78 78 100 100 100 100 96 48 8
100 100 100 100 87 75 100 95 100 100 100 100 100 100 100 100 100 100 100 100 100 100 100 100 100 100 100 99 89 100 100 100 100 100 100 50 79 71
100 100 100 100 100 100 100 100 100 100 100 100 100 100 100 100 100 100 100 100 100 100 100 100 100 100 100 100 94 100 100 100 100 100 100 100 65 77
100 100 100 100 100 100 100 100 100 100 100 100 100 100 100 100 100 100 100 100 100 100 100 100 100 100 100 100 100 100 100 100 100 100 100 100 88 100
100 100 100 100 100 100 100 100 100 100 100 100 100 100 100 100 100 100 100 100 100 100 100 100 100 100 100 100 100 100 100 100 100 100 100 100 97 100
100 100 100 100 100 100 100 100 100 100 100 100 100 100 100 100 100 100 100 100 100 100 100 100 100 100 100 100 100 100 100 100 100 100 100 97 100 100
100 100 100 100 100 100 100 100 100 100 100 100 100 100 100 100 100 100 100 100 100 100 100 100 100 100 100 100 100 100 100 100 100 100 100 96 100 100
100 100 100 100 100 100 100 100 100 100 100 100 100 100 100 100 100 100 100 100 100 100 100 100 100 100 96 100 100 100 100 100 100 100 100 98 91 100
99 100 100 100 100 100 100 100 100 100 100 100 100 100 100 100 100 100 100 100 100 100 100 100 100 100 100 100 100 100 100 100 100 100 100 98 81 96
100 95 98 100 96 100 100 100 100 100 100 100 100 100 100 100 100 100 100 100 100 100 100 100 100 100 99 100 100 100 100 100 100 100 100 100 100 100

GFSNE_prec_cloud_117.txt.gz
Cloud_Cover
100 100 100 100 100 100 100 100 100 100 100 100 100 100 100 100 100 100 100 100 100 100 98 61 100 100 100 100 99 100 41 100 75 48 98 23 5 28
100 100 100 100 100 100 100 100 100 100 100 100 100 100 100 100 100 100 100 100 100 100 93 100 100 100 100 100 100 74 84 100 74 100 68 51 74 18
100 100 100 100 100 100 100 100 100 100 100 100 100 100 100 100 100 100 100 100 100 100 100 99 100 100 100 100 80 99 100 100 82 93 100 100 92 100
100 100 100 100 100 100 100 100 100 100 100 100 100 100 100 100 100 100 100 100 100 100 100 100 100 100 100 100 100 100 100 100 84 100 100 100 100 100
100 100 100 100 100 100 100 100 100 100 100 100 100 100 100 100 100 100 100 100 100 100 100 100 100 100 100 100 100 100 100 100 99 96 100 100 100 100
100 100 100 100 100 82 100 100 100 100 100 100 100 100 100 100 100 100 100 100 100 100 100 100 100 100 100 100 100 100 100 100 100 100 100 100 100 100
100 100 100 100 100 100 100 100 100 100 100 100 100 100 100 100 100 100 100 100 100 100 100 100 100 100 100 100 100 100 100 100 100 100 100 100 100 100
100 100 100 100 100 100 97 100 100 100 100 100 100 100 100 100 100 99 100 100 100 100 100 100 100 100 100 100 100 100 100 100 100 100 100 100 100 100
100 100 100 100 91 88 78 13 16 14 44 84 100 100 100 100 100 100 97 100 100 100 100 100 100 100 100 100 100 100 100 100 100 100 100 48 93 98
56 30 9 5 5 70 100 100 83 72 93 100 100 100 100 100 100 100 100 100 100 100 100 100 100 100 100 100 99 100 100 87 62 73 34 36 41 66
94 99 96 75 7 24 58 99 100 100 95 100 100 100 100 100 100 100 100 100 100 100 100 100 100 100 100 99 91 30 19 5 5 29 47 18 5 100
5 5 6 74 100 98 100 100 100 100 100 100 100 100 100 100 100 76 100 100 100 100 100 100 100 100 100 100 95 64 20 26 5 5 5 12 12 55
95 38 14 38 18 83 100 100 96 62 83 100 100 100 100 100 100 100 100 100 100 100 100 100 100 100 100 55 12 54 100 93 50 5 5 6 20 74
100 94 98 100 100 100 100 100 100 58 88 99 100 100 100 100 100 100 100 100 100 100 100 100 100 100 100 100 100 96 68 94 92 74 62 5 29 99
100 100 100 100 100 100 100 100 100 100 100 100 100 100 100 100 100 100 100 100 100 100 100 100 100 100 100 100 100 100 98 100 100 100 100 29 63 90
98 100 98 100 100 100 100 100 100 100 100 100 100 100 100 100 100 100 100 100 100 100 100 100 100 100 100 100 100 100 100 100 100 93 100 100 90 100
100 87 68 99 100 100 100 100 100 100 100 100 100 100 100 100 100 100 100 100 100 100 100 100 100 100 100 100 100 100 100 100 99 100 100 100 100 100
84 91 100 100 100 100 100 100 100 100 100 100 100 100 100 100 100 100 100 100 100 100 100 100 100 100 100 100 100 100 100 100 100 100 100 100 100 100
53 100 100 100 100 100 100 100 100 100 100 100 100 100 100 100 100 100 100 100 100 100 100 100 100 100 100 100 100 100 100 100 100 100 100 100 100 100
85 88 92 83 100 100 100 100 100 100 100 100 100 100 100 100 100 100 100 100 100 100 100 100 100 100 100 100 100 100 100 100 100 100 100 100 100 99
75 91 86 84 100 93 99 100 98 96 100 100 100 100 100 100 100 100 100 100 100 100 100 100 100 100 100 100 100 100 100 100 100 100 100 100 100 100
99 100 100 100 97 95 94 97 99 96 100 100 100 100 100 100 100 100 100 100 100 100 100 100 100 100 100 100 100 100 100 100 100 100 100 100 100 100
100 100 100 100 100 100 100 100 98 93 100 100 100 100 100 100 96 100 100 100 100 100 100 100 100 100 100 100 100 100 100 100 100 100 100 100 100 100

GFSNE_prec_cloud_120.txt.gz
Cloud_Cover
100 100 100 100 100 100 100 100 100 100 100 100 100 100 100 100 100 100 100 100 100 100 100 100 100 95 99 100 100 100 96 82 96 99 100 100 100 84
100 100 100 100 100 100 100 100 100 100 100 100 100 100 100 100 100 100 100 100 100 100 100 100 100 100 100 100 100 100 100 100 93 100 100 100 84 84
100 100 100 100 100 100 100 100 100 100 100 100 100 100 100 100 100 100 100 100 100 100 100 100 100 100 100 100 100 100 100 100 100 100 100 100 100 83
100 100 100 100 100 100 100 100 100 100 100 100 100 100 100 100 100 100 100 100 100 100 100 100 100 100 100 100 100 100 100 100 100 100 100 100 98 100
100 100 100 100 100 100 100 100 100 100 100 100 100 100 100 100 100 100 100 100 100 100 100 100 100 100 100 100 100 100 100 100 100 100 100 100 100 100
100 100 100 100 100 100 100 100 100 100 100 100 100 100 100 100 100 100 100 100 100 100 100 100 100 100 100 100 100 100 100 100 100 100 100 100 100 100
100 100 100 100 100 100 100 100 100 100 100 100 100 100 100 100 100 100 100 100 100 100 100 100 100 100 100 100 100 100 100 98 100 100 100 100 100 100
100 100 100 100 100 100 98 100 100 100 100 100 100 100 100 100 100 100 100 100 100 93 100 100 100 100 100 100 100 100 100 100 100 100 100 100 100 100
100 96 94 70 64 57 6 100 100 100 100 100 100 100 100 100 100 100 100 100 100 100 100 100 100 100 100 100 100 100 100 100 100 100 100 80 96 100
5 5 5 5 5 14 92 90 86 62 59 96 100 100 100 100 100 100 100 100 100 100 100 100 100 100 100 100 100 100 100 100 97 92 100 36 97 100
5 5 5 5 6 81 44 19 42 87 100 90 28 67 86 100 97 100 100 100 100 100 100 100 100 100 100 100 100 100 100 100 100 100 99 99 95 99
5 5 5 8 68 100 100 100 100 99 100 86 19 6 44 100 100 100 100 100 100 100 100 100 100 100 100 100 100 100 100 100 100 100 100 84 100 100
5 5 5 21 98 100 99 100 100 100 100 99 96 88 89 81 98 100 100 100 100 100 100 100 100 100 100 100 100 100 100 100 100 100 100 100 100 100
5 5 68 100 100 100 100 100 100 100 100 100 100 100 100 100 100 100 100 100 100 100 100 100 100 100 100 100 100 100 100 100 100 100 100 100 100 100
18 97 100 63 72 100 100 100 100 100 100 100 100 100 100 100 100 100 100 100 100 100 100 100 100 100 100 100 100 100 100 100 100 100 100 99 100 100
50 72 38 71 79 79 68 86 100 100 100 100 100 100 100 100 100 100 100 100 100 100 100 100 100 100 100 100 100 100 100 100 100 100 100 100 100 100
60 6 34 15 21 76 98 100 79 100 100 97 100 100 100 100 100 100 100 100 100 98 100 100 100 100 100 100 100 100 100 100 100 96 100 100 100 100
64 69 79 82 100 80 100 100 93 100 100 100 100 100 100 100 100 100 100 100 100 100 100 100 100 100 100 100 100 100 100 100 97 100 100 100 100 100
21 90 90 100 100 89 100 100 100 96 100 100 100 100 100 100 100 100 100 100 100 100 100 100 100 100 100 100 100 100 100 99 100 100 100 100 100 100
87 87 100 100 100 100 100 100 100 100 100 100 100 100 100 100 100 100 100 97 100 100 100 100 100 100 100 100 100 100 100 100 100 100 100 100 100 100
90 95 100 100 100 100 100 100 100 100 98 100 100 100 100 100 100 97 98 100 100 100 100 100 100 100 100 100 100 100 100 100 100 100 100 100 100 100
100 100 100 100 100 100 100 100 100 100 100 100 100 100 100 100 100 100 100 100 100 100 100 100 100 100 100 100 100 100 100 100 100 100 100 100 100 100
100 100 100 100 100 100 100 100 100 100 100 100 100 100 100 100 100 100 100 100 100 100 100 100 100 100 100 100 100 100 100 100 100 100 100 100 100 100

GFSNE_prec_cloud_123.txt.gz
Cloud_Cover
100 100 100 100 100 100 100 100 100 100 100 100 99 100 100 100 100 100 100 100 100 100 100 100 100 100 100 100 100 100 100 100 100 100 100 100 100 100
100 100 100 100 100 100 100 100 100 100 100 100 100 100 100 100 100 100 100 100 100 100 100 100 100 100 100 100 100 100 100 100 100 100 99 99 100 100
100 100 100 100 100 100 100 100 100 100 100 100 100 100 100 100 100 100 100 100 100 100 100 100 100 100 98 98 100 100 100 100 96 99 100 100 100 100
100 100 100 100 100 100 100 100 100 100 100 100 100 100 100 100 100 100 100 100 100 100 100 100 100 100 100 100 100 100 100 100 100 100 100 100 100 100
100 100 100 100 100 100 100 100 100 100 100 100 100 100 100 100 100 98 80 100 100 100 100 100 100 100 100 100 100 100 100 100 100 100 100 77 80 99
100 100 100 100 100 100 100 100 100 100 100 100 100 100 100 100 100 100 100 100 100 100 100 100 100 100 100 100 100 100 100 100 100 100 100 99 56 12
100 100 100 100 100 100 100 100 100 100 100 100 100 100 100 98 100 100 100 100 100 100 100 100 100 100 100 100 100 100 100 100 100 100 100 100 100 100
100 100 100 100 100 100 100 100 100 100 100 100 100 100 100 100 83 97 100 100 100 100 96 98 100 100 100 100 100 100 100 100 100 100 100 100 100 100
100 100 100 100 100 100 100 100 100 99 100 100 100 100 100 98 100 100 100 100 100 91 100 100 81 100 100 100 100 100 100 100 100 100 100 100 100 100
100 100 100 19 5 5 20 36 29 4 5 5 10 55 42 97 100 100 100 100 100 100 100 100 100 100 100 100 100 100 100 100 100 100 100 100 100 100
7 8 4 5 7 96 100 100 100 100 87 72 100 32 5 5 5 58 100 100 100 100 100 100 100 100 100 100 100 100 100 100 100 100 100 100 96 100
5 5 5 5 26 92 100 100 100 100 100 100 5 5 10 22 100 88 100 100 100 100 100 100 100 100 100 100 100 100 100 100 100 100 100 100 100 100
5 3 4 6 28 29 33 95 100 100 100 66 26 60 70 74 95 100 100 100 100 100 100 100 100 100 100 100 100 100 100 100 100 100 100 100 100 94
5 5 5 24 7 14 22 30 100 97 100 100 100 100 100 100 100 100 100 100 100 100 100 100 100 100 100 100 100 100 100 100 100 100 100 100 100 89
5 10 5 5 5 5 7 14 28 14 99 100 100 100 100 100 100 100 100 100 100 100 100 100 100 100 100 100 100 100 100 100 100 100 100 100 100 100
5 5 5 5 5 5 5 5 46 98 100 100 100 100 100 100 100 100 100 100 99 100 100 100 100 100 100 100 100 100 100 100 100 100 100 99 100 100
7 5 5 5 5 5 35 72 88 94 100 100 100 100 100 100 100 100 100 99 100 100 100 98 100 100 100 100 100 100 100 100 100 100 100 100 100 100
44 71 93 20 5 24 87 83 86 100 100 100 100 100 100 100 100 100 100 98 100 100 79 80 100 100 100 100 100 100 100 100 100 100 100 100 100 100
100 100 97 32 62 100 76 99 100 100 100 100 100 100 100 100 100 100 100 100 90 100 100 100 100 100 100 100 100 100 100 100 100 100 100 100 100 79
65 45 68 78 100 100 90 100 100 100 100 100 100 100 100 100 100 100 98 100 100 100 99 100 100 100 100 100 100 100 100 100 100 100 100 100 100 100
40 72 97 100 100 100 100 100 100 100 100 100 100 100 100 98 100 100 95 100 100 100 90 99 98 100 100 100 100 100 100 100 100 100 100 100 100 91
100 100 100 100 100 100 100 100 100 100 100 100 100 100 100 100 100 100 100 100 98 91 100 100 96 100 100 100 100 100 100 100 100 100 100 100 100 100
100 100 100 100 100 100 100 100 100 100 100 100 100 100 100 98 99 100 100 100 99 98 90 100 100 100 100 100 100 100 100 100 100 100 100 100 100 100

GFSNE_prec_cloud_126.txt.gz
Cloud_Cover
100 100 100 100 100 100 100 100 100 87 93 100 100 100 100 100 100 100 100 100 100 100 100 100 100 100 100 100 100 100 100 100 98 98 100 73 100 61
100 100 100 100 100 100 100 100 100 100 100 100 100 72 100 100 100 100 100 100 100 100 100 100 100 100 100 100 100 100 100 100 96 68 92 59 74 53
100 100 100 100 100 100 100 100 100 100 100 100 100 100 100 100 100 100 100 97 100 100 100 100 100 100 100 100 100 100 100 100 100 100 100 100 31 93
100 100 100 100 100 100 100 100 100 100 100 100 100 100 100 100 98 96 100 100 100 100 100 100 100 100 100 100 100 100 100 100 100 100 100 100 100 100
100 100 100 100 100 100 100 100 100 100 100 100 100 100 100 100 100 100 100 100 100 100 100 100 100 100 100 100 100 100 100 100 100 100 100 100 100 100
100 100 100 100 100 100 100 100 100 100 100 100 100 100 100 100 100 100 100 100 100 100 100 100 68 18 8 57 99 100 100 100 100 100 100 100 100 100
100 100 100 100 100 100 100 100 100 100 100 100 100 100 100 100 100 100 100 100 100 100 100 39 4 5 27 22 51 100 100 100 100 100 100 100 100 100
100 100 100 100 100 100 100 100 100 100 100 100 100 100 100 100 100 92 55 92 84 15 54 100 28 66 46 13 38 100 100 100 100 100 100 100 100 100
100 100 100 100 100 100 100 100 100 100 100 100 100 100 75 75 97 100 45 27 55 12 34 81 40 66 26 99 98 100 100 100 100 100 100 100 100 100
100 100 100 100 100 100 100 100 100 100 100 45 22 49 84 11 11 12 76 100 100 100 67 99 78 25 75 33 92 96 100 100 100 100 100 100 100 100
100 100 100 100 100 100 100 100 99 15 18 99 100 98 42 60 100 96 91 99 100 100 100 100 100 98 100 74 76 100 100 100 100 100 100 100 100 100
97 56 7 5 5 42 14 18 51 11 100 100 100 100 100 100 64 100 100 100 100 100 100 100 100 100 100 100 100 36 100 100 100 100 100 100 100 100
2 1 2 4 20 20 33 14 46 100 97 81 100 100 100 100 100 100 100 100 100 100 100 100 100 100 100 100 100 100 100 100 100 100 100 100 100 100
5 5 5 14 39 28 9 27 53 69 13 99 100 100 100 100 100 100 100 100 100 100 100 100 100 100 100 100 100 100 100 100 100 100 100 100 100 100
5 6 12 16 5 5 5 24 10 5 23 98 100 100 100 100 100 100 100 100 100 100 100 100 100 100 100 100 100 100 100 100 100 100 100 100 100 100
7 5 6 5 5 5 5 5 5 30 97 100 100 100 100 100 100 100 100 100 100 100 99 99 100 100 100 100 100 100 96 94 100 100 100 100 100 100
15 5 6 12 45 20 23 13 5 93 100 100 100 100 100 100 100 100 100 100 99 100 100 34 81 90 100 100 86 98 100 100 100 100 100 100 100 100
59 29 12 56 39 12 45 99 84 100 100 100 100 100 100 100 100 100 100 100 100 100 100 81 76 95 100 92 94 99 100 100 100 100 100 100 100 100
73 8 5 13 49 72 97 100 100 100 100 100 100 100 98 100 100 100 100 100 80 67 100 98 85 98 100 100 80 100 100 100 100 100 100 100 100 100
82 76 61 66 66 94 100 100 100 100 100 100 100 100 95 99 96 100 100 100 70 72 100 89 84 94 100 97 100 100 100 100 100 100 100 100 100 100
95 88 76 98 100 100 100 100 100 100 100 97 100 98 96 100 96 100 100 100 100 100 100 84 89 97 98 100 100 100 100 100 100 100 100 100 100 100
100 100 100 100 100 100 100 100 100 89 96 100 100 97 100 100 99 100 98 100 100 100 94 97 100 92 100 100 100 100 100 100 100 100 100 100 100 100
100 100 100 100 100 100 100 100 100 97 95 100 100 100 100 100 94 96 99 100 100 100 93 89 86 100 100 100 100 100 100 100 100 100 100 100 100 100

GFSNE_prec_cloud_129.txt.gz
Cloud_Cover
100 98 88 100 84 77 96 100 100 100 100 97 100 100 100 100 100 100 100 100 100 100 100 99 6 90 99 100 100 92 100 99 97 100 100 100 100 100
99 100 100 100 100 100 100 100 100 100 100 100 100 100 100 100 100 100 100 100 100 100 100 100 100 100 100 100 100 100 100 100 100 100 100 100 100 99
100 100 100 100 100 100 100 100 100 100 100 100 100 100 100 100 100 100 100 98 77 68 28 42 100 100 100 100 100 100 100 100 100 100 100 100 100 100
100 100 100 100 100 100 100 100 100 100 100 100 100 100 100 100 100 96 14 12 34 74 100 100 100 100 100 100 100 100 100 100 100 100 100 100 100 100
100 100 100 100 100 100 100 100 100 100 100 100 100 100 100 100 100 98 57 76 100 100 100 100 100 100 100 100 100 100 100 100 91 100 100 100 100 100
100 100 100 100 100 100 100 100 100 100 100 100 100 100 100 100 100 100 100 100 100 100 100 100 100 100 100 100 97 52 67 2 34 100 100 100 100 100
100 100 100 100 100 100 100 100 100 100 100 100 100 100 100 100 100 100 100 100 100 100 100 100 100 100 100 88 17 4 5 5 50 100 100 100 100 100
100 100 100 100 100 100 98 99 100 100 100 100 100 100 100 100 100 100 100 100 100 100 100 100 100 29 0 0 0 5 43 7 29 89 100 100 100 100
100 100 100 100 100 100 100 100 90 100 100 100 100 100 100 100 100 100 95 100 100 37 36 99 100 38 7 5 5 9 5 16 98 82 100 100 100 100
100 100 100 97 100 100 100 100 100 100 100 100 100 100 100 100 100 100 97 97 78 100 60 100 19 9 97 56 29 64 59 100 100 100 100 100 100 100
100 100 100 100 100 100 100 100 100 100 100 100 82 100 100 100 100 100 99 100 100 99 100 82 99 100 49 78 51 100 83 100 98 62 98 100 100 100
100 100 100 100 100 95 78 94 100 72 37 18 5 6 96 100 100 100 100 100 100 100 100 100 100 100 100 100 97 100 100 100 81 91 100 100 100 100
15 6 20 59 32 69 33 25 44 100 67 6 5 37 100 100 100 100 100 100 100 100 100 100 100 100 100 100 100 98 100 100 100 100 100 100 100 100
5 6 22 6 96 41 13 19 92 60 5 5 84 88 96 100 99 100 100 100 100 100 100 100 100 100 100 100 100 100 100 100 100 100 100 100 100 100
5 5 7 6 14 5 5 5 9 5 5 98 100 100 98 97 100 100 100 100 100 100 100 100 100 100 100 100 100 100 98 99 100 100 100 100 100 100
5 5 6 46 78 66 30 17 14 14 75 92 100 100 100 100 100 100 100 100 100 88 78 79 79 100 100 100 100 86 99 100 99 99 83 100 100 100
78 49 17 6 5 10 24 27 26 13 87 100 96 88 99 98 84 100 100 100 100 99 94 100 91 100 100 100 78 96 100 100 100 97 100 100 100 100
100 100 99 17 8 7 5 6 100 99 100 100 100 100 90 96 90 98 100 100 99 84 100 100 96 72 82 72 99 100 97 100 100 100 100 100 100 100
100 100 94 77 34 55 58 94 100 100 100 100 100 100 100 99 87 99 100 100 97 100 100 100 100 89 89 91 97 92 96 100 99 100 100 100 100 100
100 100 97 99 96 96 100 100 100 100 100 100 99 100 100 100 100 100 100 100 100 100 100 100 100 94 97 82 89 92 100 100 100 100 100 100 100 100
100 100 100 100 100 100 100 100 100 100 98 69 100 100 100 100 100 100 100 100 100 100 95 100 100 83 100 94 98 99 100 100 100 100 100 100 100 100
100 100 100 100 100 100 100 100 100 94 99 99 100 100 100 100 100 100 100 100 94 100 96 96 100 94 96 100 100 100 100 100 100 100 100 100 100 100
100 100 100 100 100 100 100 100 99 83 90 100 100 100 100 100 100 100 100 95 98 96 89 76 100 90 100 100 100 100 100 100 100 100 100 100 100 100

GFSNE_prec_cloud_135.txt.gz
Cloud_Cover
100 100 100 100 100 100 100 100 99 100 100 100 99 100 100 100 100 100 100 100 100 100 100 100 100 100 100 100 99 100 100 100 100 100 100 85 98 100
40 100 100 100 100 84 97 100 100 100 100 100 100 100 100 100 100 100 100 100 100 100 100 100 100 100 100 100 100 100 100 100 100 100 100 94 91 100
100 100 100 92 100 100 100 100 100 100 100 100 100 100 100 100 100 100 100 100 100 100 100 100 100 100 100 100 100 100 100 100 100 100 79 100 100 100
100 100 100 100 100 100 100 100 100 100 100 100 94 100 100 100 100 100 100 100 100 100 100 100 100 100 100 100 100 100 100 100 100 100 100 86 89 100
100 100 100 100 100 100 100 100 100 100 100 100 100 100 100 100 100 100 100 100 100 100 100 100 100 100 100 100 100 100 82 41 19 79 100 100 100 100
100 100 100 100 100 100 100 100 100 100 100 100 100 100 99 100 100 100 100 100 100 100 100 100 100 100 100 100 100 7 5 40 100 100 100 100 100 100
100 100 100 100 89 100 100 100 100 100 100 100 100 100 100 100 100 100 100 100 100 100 100 100 100 100 100 33 5 72 100 100 100 100 100 100 100 100
100 75 100 100 100 100 100 100 100 100 100 100 100 100 100 100 100 100 100 100 100 100 100 100 100 100 100 91 44 25 100 100 100 100 100 100 100 100
100 89 100 100 100 100 100 100 100 100 100 100 100 100 100 100 100 100 100 100 100 100 98 99 32 81 25 54 100 100 100 100 100 100 100 10 5 24
100 100 100 100 100 100 100 100 100 100 100 100 100 100 100 100 100 100 100 100 100 100 100 100 100 100 100 99 99 68 100 97 98 95 47 6 27 38
25 99 100 100 100 100 100 100 100 100 100 100 92 99 97 100 100 100 100 100 100 100 79 100 99 100 100 30 25 80 5 52 30 5 79 100 79 72
0 5 5 5 5 29 5 24 57 95 99 99 99 86 72 72 54 93 100 100 100 97 88 100 100 100 100 35 95 100 96 39 42 98 100 100 100 100
46 18 4 5 6 8 8 4 5 5 5 5 5 5 5 5 5 5 54 100 100 100 99 100 100 100 100 100 23 17 100 100 89 100 100 100 100 100
10 45 100 100 84 24 14 17 28 22 12 5 5 5 5 5 5 5 5 86 100 100 100 100 100 100 100 100 100 12 82 100 92 100 100 76 100 100
100 100 100 100 100 100 100 100 100 100 100 80 57 39 22 5 5 16 5 5 29 95 98 94 100 100 100 100 100 100 100 100 87 91 42 64 99 72
100 100 100 100 100 100 100 100 100 100 95 98 64 91 80 63 100 90 62 15 73 100 27 100 100 100 94 71 97 100 100 100 48 70 100 100 100 50
100 99 71 97 100 100 100 100 100 100 99 98 83 13 12 16 39 68 79 85 100 100 84 6 84 91 85 99 100 100 100 100 100 100 100 100 25 18
98 89 100 100 100 100 100 100 73 68 86 100 98 80 96 93 98 76 68 100 100 85 89 70 70 67 66 100 98 100 100 100 100 100 83 90 44 94
100 100 100 100 100 100 100 99 93 100 100 100 98 84 89 84 77 99 80 90 93 90 89 100 100 100 100 97 98 100 100 100 96 38 76 80 88 100
100 100 100 93 81 100 100 100 100 100 100 100 82 82 95 100 90 93 92 100 100 99 90 99 100 100 100 100 100 89 82 99 99 87 100 95 94 100
100 85 6 11 45 100 100 100 100 100 100 98 90 85 76 99 96 97 99 93 98 93 95 100 100 100 99 92 76 73 71 73 95 96 99 100 100 100
27 7 93 100 100 94 100 100 100 100 85 77 75 82 79 90 100 100 100 100 98 100 92 100 88 77 86 92 84 80 77 100 100 100 100 100 100 100
53 35 96 100 98 100 100 100 86 74 88 97 85 77 92 93 83 100 100 100 100 100 97 92 37 51 86 89 85 78 100 100 100 100 100 100 100 100